Wetterdaten: Samstag, 30.01.2016
Datum Zeit Temp. Aussen Temp. o. S. +5cm Feuchte Auss BlattFeu 1 Luftdruck Regen Sonnenschein Regendauer Solar Windben Empfang
30.01.2016 00:00 9,4 C 9,4 C 7,8 C 85 % 0 lf 1018,9 hPa 0,0 l/m 0 min 0 min 0 W/m 35,6 km/h (5 Bft) 95,74 %
30.01.2016 00:02 9,4 C 9,4 C 7,8 C 85 % 0 lf 1019,0 hPa 0,0 l/m 0 min 0 min 0 W/m 33,5 km/h (5 Bft) 15,38 %
30.01.2016 00:04 9,4 C 9,4 C 7,8 C 84 % 0 lf 1018,8 hPa 0,0 l/m 0 min 0 min 0 W/m 31,4 km/h (5 Bft) 47,06 %
30.01.2016 00:06 9,4 C 9,4 C 7,8 C 84 % 0 lf 1018,9 hPa 0,0 l/m 0 min 0 min 0 W/m 39,7 km/h (6 Bft) 97,87 %
30.01.2016 00:08 9,4 C 9,4 C 7,8 C 84 % 0 lf 1018,8 hPa 0,0 l/m 0 min 0 min 0 W/m 31,4 km/h (5 Bft) 97,87 %
30.01.2016 00:10 9,4 C 9,4 C 7,8 C 84 % 0 lf 1018,7 hPa 0,0 l/m 0 min 0 min 0 W/m 27,2 km/h (4 Bft) 97,83 %
30.01.2016 00:12 9,4 C 9,4 C 7,8 C 84 % 0 lf 1018,7 hPa 0,0 l/m 0 min 0 min 0 W/m 29,3 km/h (5 Bft) 100,00 %
30.01.2016 00:14 9,4 C 9,4 C 7,8 C 84 % 0 lf 1018,8 hPa 0,0 l/m 0 min 2 min 0 W/m 46,0 km/h (6 Bft) 100,00 %
30.01.2016 00:16 9,4 C 9,4 C 7,8 C 84 % 0 lf 1018,7 hPa 0,0 l/m 0 min 2 min 0 W/m 48,1 km/h (6 Bft) 97,87 %
30.01.2016 00:18 9,4 C 9,4 C 7,8 C 84 % 0 lf 1018,5 hPa 0,0 l/m 0 min 2 min 0 W/m 23,0 km/h (4 Bft) 95,74 %
30.01.2016 00:20 9,4 C 9,4 C 7,8 C 84 % 1 lf 1018,6 hPa 0,0 l/m 0 min 2 min 0 W/m 29,3 km/h (5 Bft) 100,00 %
30.01.2016 00:22 9,4 C 9,4 C 7,8 C 84 % 1 lf 1018,6 hPa 0,0 l/m 0 min 2 min 0 W/m 46,0 km/h (6 Bft) 100,00 %
30.01.2016 00:24 9,4 C 9,4 C 7,8 C 84 % 2 lf 1018,6 hPa 0,0 l/m 0 min 0 min 0 W/m 39,7 km/h (6 Bft) 100,00 %
30.01.2016 00:26 9,4 C 9,4 C 7,8 C 84 % 1 lf 1018,5 hPa 0,0 l/m 0 min 2 min 0 W/m 23,0 km/h (4 Bft) 97,87 %
30.01.2016 00:28 9,4 C 9,4 C 7,8 C 85 % 1 lf 1018,5 hPa 0,0 l/m 0 min 2 min 0 W/m 50,2 km/h (7 Bft) 97,87 %
30.01.2016 00:30 9,4 C 9,4 C 7,8 C 85 % 9 lf 1018,6 hPa 0,0 l/m 0 min 2 min 0 W/m 50,2 km/h (7 Bft) 97,87 %
30.01.2016 00:32 9,4 C 8,9 C 7,8 C 85 % 9 lf 1018,6 hPa 0,0 l/m 0 min 2 min 0 W/m 41,8 km/h (6 Bft) 100,00 %
30.01.2016 00:34 9,3 C 8,9 C 7,2 C 85 % 10 lf 1018,5 hPa 0,0 l/m 0 min 2 min 0 W/m 29,3 km/h (5 Bft) 100,00 %
30.01.2016 00:36 9,3 C 8,3 C 7,2 C 85 % 9 lf 1018,5 hPa 0,0 l/m 0 min 2 min 0 W/m 33,5 km/h (5 Bft) 100,00 %
30.01.2016 00:38 9,3 C 8,3 C 7,2 C 85 % 13 lf 1018,5 hPa 0,0 l/m 0 min 2 min 0 W/m 33,5 km/h (5 Bft) 97,87 %
30.01.2016 00:40 9,3 C 8,9 C 7,2 C 85 % 14 lf 1018,5 hPa 0,0 l/m 0 min 2 min 0 W/m 29,3 km/h (5 Bft) 97,87 %
30.01.2016 00:42 9,3 C 8,9 C 7,2 C 85 % 13 lf 1018,5 hPa 0,0 l/m 0 min 2 min 0 W/m 29,3 km/h (5 Bft) 100,00 %
30.01.2016 00:44 9,3 C 8,9 C 7,2 C 85 % 10 lf 1018,5 hPa 0,0 l/m 0 min 2 min 0 W/m 33,5 km/h (5 Bft) 97,83 %
30.01.2016 00:46 9,3 C 8,9 C 7,2 C 85 % 5 lf 1018,5 hPa 0,0 l/m 0 min 2 min 0 W/m 37,7 km/h (5 Bft) 97,87 %
30.01.2016 00:48 9,2 C 8,9 C 7,2 C 86 % 3 lf 1018,5 hPa 0,0 l/m 0 min 2 min 0 W/m 25,1 km/h (4 Bft) 97,87 %
30.01.2016 00:50 9,2 C 8,9 C 7,2 C 86 % 3 lf 1018,5 hPa 0,0 l/m 0 min 2 min 0 W/m 27,2 km/h (4 Bft) 97,87 %
30.01.2016 00:52 9,2 C 8,9 C 7,2 C 86 % 3 lf 1018,5 hPa 0,0 l/m 0 min 2 min 0 W/m 37,7 km/h (5 Bft) 97,87 %
30.01.2016 00:54 9,2 C 8,9 C 7,2 C 86 % 3 lf 1018,5 hPa 0,0 l/m 0 min 2 min 0 W/m 35,6 km/h (5 Bft) 100,00 %
30.01.2016 00:56 9,2 C 8,9 C 7,2 C 86 % 2 lf 1018,4 hPa 0,0 l/m 0 min 2 min 0 W/m 35,6 km/h (5 Bft) 95,65 %
30.01.2016 00:58 9,2 C 8,9 C 7,2 C 86 % 1 lf 1018,4 hPa 0,0 l/m 0 min 2 min 0 W/m 29,3 km/h (5 Bft) 97,87 %
30.01.2016 01:00 9,2 C 8,9 C 7,2 C 86 % 3 lf 1018,5 hPa 0,0 l/m 0 min 2 min 0 W/m 37,7 km/h (5 Bft) 100,00 %
30.01.2016 01:02 9,2 C 8,9 C 7,2 C 86 % 3 lf 1018,6 hPa 0,0 l/m 0 min 2 min 0 W/m 35,6 km/h (5 Bft) 97,87 %
30.01.2016 01:04 9,2 C 8,9 C 7,2 C 86 % 2 lf 1018,4 hPa 0,0 l/m 0 min 2 min 0 W/m 41,8 km/h (6 Bft) 100,00 %
30.01.2016 01:06 9,2 C 8,9 C 7,2 C 86 % 2 lf 1018,5 hPa 0,0 l/m 0 min 2 min 0 W/m 46,0 km/h (6 Bft) 100,00 %
30.01.2016 01:08 9,2 C 8,9 C 7,2 C 87 % 1 lf 1018,4 hPa 0,0 l/m 0 min 2 min 0 W/m 43,9 km/h (6 Bft) 93,48 %
30.01.2016 01:10 9,1 C 8,9 C 7,2 C 87 % 2 lf 1018,3 hPa 0,0 l/m 0 min 2 min 0 W/m 31,4 km/h (5 Bft) 97,87 %
30.01.2016 01:12 9,1 C 8,9 C 7,2 C 87 % 3 lf 1018,4 hPa 0,0 l/m 0 min 2 min 0 W/m 29,3 km/h (5 Bft) 97,87 %
30.01.2016 01:14 9,1 C 8,9 C 7,2 C 87 % 1 lf 1018,3 hPa 0,0 l/m 0 min 2 min 0 W/m 35,6 km/h (5 Bft) 97,87 %
30.01.2016 01:16 9,1 C 8,9 C 7,2 C 87 % 5 lf 1018,3 hPa 0,0 l/m 0 min 2 min 0 W/m 50,2 km/h (7 Bft) 95,74 %
30.01.2016 01:18 9,1 C 8,9 C 7,2 C 87 % 10 lf 1018,2 hPa 0,0 l/m 0 min 2 min 0 W/m 35,6 km/h (5 Bft) 93,62 %
30.01.2016 01:20 9,1 C 8,9 C 7,2 C 87 % 10 lf 1018,2 hPa 0,0 l/m 0 min 2 min 0 W/m 29,3 km/h (5 Bft) 95,65 %
30.01.2016 01:22 9,1 C 8,9 C 7,2 C 87 % 6 lf 1018,2 hPa 0,0 l/m 0 min 2 min 0 W/m 29,3 km/h (5 Bft) 95,74 %
30.01.2016 01:24 9,1 C 8,9 C 7,2 C 87 % 4 lf 1018,2 hPa 0,0 l/m 0 min 2 min 0 W/m 39,7 km/h (6 Bft) 95,74 %
30.01.2016 01:26 9,1 C 8,9 C 7,2 C 87 % 4 lf 1018,1 hPa 0,0 l/m 0 min 2 min 0 W/m 35,6 km/h (5 Bft) 91,49 %
30.01.2016 01:28 9,1 C 8,9 C 7,2 C 87 % 4 lf 1018,1 hPa 0,0 l/m 0 min 2 min 0 W/m 16,7 km/h (3 Bft) 93,62 %
30.01.2016 01:30 9,1 C 8,9 C 7,2 C 87 % 4 lf 1018,0 hPa 0,0 l/m 0 min 2 min 0 W/m 33,5 km/h (5 Bft) 95,65 %
30.01.2016 01:32 9,1 C 8,9 C 7,2 C 87 % 3 lf 1018,0 hPa 0,0 l/m 0 min 2 min 0 W/m 27,2 km/h (4 Bft) 95,74 %
30.01.2016 01:34 9,1 C 8,9 C 7,2 C 87 % 3 lf 1018,0 hPa 0,0 l/m 0 min 2 min 0 W/m 37,7 km/h (5 Bft) 93,62 %
30.01.2016 01:36 9,0 C 8,9 C 7,2 C 87 % 2 lf 1017,9 hPa 0,0 l/m 0 min 2 min 0 W/m 31,4 km/h (5 Bft) 93,62 %
30.01.2016 01:38 9,0 C 8,3 C 7,2 C 88 % 2 lf 1017,9 hPa 0,0 l/m 0 min 2 min 0 W/m 27,2 km/h (4 Bft) 93,62 %
30.01.2016 01:40 9,0 C 8,3 C 7,2 C 88 % 2 lf 1017,8 hPa 0,0 l/m 0 min 2 min 0 W/m 31,4 km/h (5 Bft) 95,74 %
30.01.2016 01:42 9,0 C 8,9 C 7,2 C 88 % 1 lf 1017,9 hPa 0,0 l/m 0 min 2 min 0 W/m 48,1 km/h (6 Bft) 93,48 %
30.01.2016 01:44 9,0 C 8,9 C 7,2 C 88 % 1 lf 1017,7 hPa 0,0 l/m 0 min 2 min 0 W/m 37,7 km/h (5 Bft) 93,62 %
30.01.2016 01:46 9,0 C 8,9 C 7,2 C 88 % 0 lf 1017,6 hPa 0,0 l/m 0 min 2 min 0 W/m 37,7 km/h (5 Bft) 93,62 %
30.01.2016 01:48 9,0 C 8,9 C 7,2 C 88 % 0 lf 1017,5 hPa 0,0 l/m 0 min 2 min 0 W/m 41,8 km/h (6 Bft) 93,62 %
30.01.2016 01:50 9,0 C 8,9 C 7,2 C 88 % 0 lf 1017,4 hPa 0,0 l/m 0 min 2 min 0 W/m 35,6 km/h (5 Bft) 93,62 %
30.01.2016 01:52 9,0 C 8,9 C 7,2 C 88 % 0 lf 1017,4 hPa 0,0 l/m 0 min 2 min 0 W/m 43,9 km/h (6 Bft) 95,74 %
30.01.2016 01:54 9,0 C 9,4 C 7,2 C 88 % 0 lf 1017,4 hPa 0,0 l/m 0 min 2 min 0 W/m 43,9 km/h (6 Bft) 93,62 %
30.01.2016 01:56 9,0 C 9,4 C 7,2 C 88 % 1 lf 1017,3 hPa 0,0 l/m 0 min 2 min 0 W/m 33,5 km/h (5 Bft) 93,48 %
30.01.2016 01:58 9,0 C 9,4 C 7,2 C 88 % 0 lf 1017,2 hPa 0,0 l/m 0 min 0 min 0 W/m 29,3 km/h (5 Bft) 93,62 %
30.01.2016 02:00 9,0 C 9,4 C 7,2 C 88 % 0 lf 1017,1 hPa 0,0 l/m 0 min 0 min 0 W/m 35,6 km/h (5 Bft) 93,62 %
30.01.2016 02:02 9,0 C 8,9 C 7,2 C 88 % 2 lf 1017,2 hPa 0,0 l/m 0 min 2 min 0 W/m 41,8 km/h (6 Bft) 93,62 %
30.01.2016 02:04 9,0 C 8,9 C 7,2 C 88 % 3 lf 1017,1 hPa 0,0 l/m 0 min 2 min 0 W/m 39,7 km/h (6 Bft) 95,74 %
30.01.2016 02:06 9,0 C 9,4 C 7,2 C 87 % 1 lf 1017,0 hPa 0,0 l/m 0 min 2 min 0 W/m 39,7 km/h (6 Bft) 95,65 %
30.01.2016 02:08 9,0 C 8,9 C 7,2 C 87 % 1 lf 1017,0 hPa 0,0 l/m 0 min 2 min 0 W/m 33,5 km/h (5 Bft) 95,74 %
30.01.2016 02:10 9,0 C 8,9 C 7,2 C 87 % 0 lf 1016,9 hPa 0,0 l/m 0 min 2 min 0 W/m 39,7 km/h (6 Bft) 93,62 %
30.01.2016 02:12 9,0 C 8,9 C 7,2 C 88 % 0 lf 1016,9 hPa 0,0 l/m 0 min 2 min 0 W/m 46,0 km/h (6 Bft) 97,87 %
30.01.2016 02:14 9,0 C 8,9 C 7,2 C 88 % 0 lf 1016,9 hPa 0,0 l/m 0 min 0 min 0 W/m 43,9 km/h (6 Bft) 97,87 %
30.01.2016 02:16 9,0 C 8,9 C 7,2 C 88 % 3 lf 1016,9 hPa 0,0 l/m 0 min 0 min 0 W/m 41,8 km/h (6 Bft) 89,36 %
30.01.2016 02:18 9,0 C 8,9 C 7,2 C 88 % 1 lf 1016,9 hPa 0,0 l/m 0 min 2 min 0 W/m 35,6 km/h (5 Bft) 97,83 %
30.01.2016 02:20 9,0 C 8,9 C 7,2 C 88 % 0 lf 1016,8 hPa 0,0 l/m 0 min 2 min 0 W/m 39,7 km/h (6 Bft) 97,87 %
30.01.2016 02:22 9,0 C 8,9 C 7,2 C 88 % 2 lf 1016,8 hPa 0,0 l/m 0 min 2 min 0 W/m 33,5 km/h (5 Bft) 97,87 %
30.01.2016 02:24 8,9 C 8,9 C 7,2 C 88 % 5 lf 1016,8 hPa 0,0 l/m 0 min 2 min 0 W/m 29,3 km/h (5 Bft) 97,87 %
30.01.2016 02:26 8,9 C 8,9 C 7,2 C 88 % 8 lf 1016,8 hPa 0,0 l/m 0 min 2 min 0 W/m 23,0 km/h (4 Bft) 97,87 %
30.01.2016 02:28 8,9 C 8,3 C 7,2 C 88 % 9 lf 1016,7 hPa 0,0 l/m 0 min 2 min 0 W/m 35,6 km/h (5 Bft) 100,00 %
30.01.2016 02:30 8,9 C 8,3 C 7,2 C 88 % 5 lf 1016,6 hPa 0,0 l/m 0 min 2 min 0 W/m 29,3 km/h (5 Bft) 100,00 %
30.01.2016 02:32 8,9 C 8,3 C 6,7 C 88 % 4 lf 1016,6 hPa 0,0 l/m 0 min 2 min 0 W/m 35,6 km/h (5 Bft) 97,87 %
30.01.2016 02:34 8,9 C 8,3 C 6,7 C 88 % 4 lf 1016,5 hPa 0,0 l/m 0 min 2 min 0 W/m 29,3 km/h (5 Bft) 97,87 %
30.01.2016 02:36 8,8 C 8,3 C 6,7 C 88 % 4 lf 1016,4 hPa 0,0 l/m 0 min 2 min 0 W/m 46,0 km/h (6 Bft) 100,00 %
30.01.2016 02:38 8,8 C 8,3 C 6,7 C 88 % 3 lf 1016,5 hPa 0,0 l/m 0 min 2 min 0 W/m 37,7 km/h (5 Bft) 100,00 %
30.01.2016 02:40 8,8 C 8,3 C 6,7 C 89 % 4 lf 1016,3 hPa 0,0 l/m 0 min 2 min 0 W/m 48,1 km/h (6 Bft) 100,00 %
30.01.2016 02:42 8,8 C 8,3 C 6,7 C 89 % 2 lf 1016,4 hPa 0,0 l/m 0 min 2 min 0 W/m 43,9 km/h (6 Bft) 97,83 %
30.01.2016 02:44 8,8 C 8,3 C 6,7 C 89 % 1 lf 1016,4 hPa 0,0 l/m 0 min 2 min 0 W/m 33,5 km/h (5 Bft) 100,00 %
30.01.2016 02:46 8,8 C 8,3 C 6,7 C 89 % 1 lf 1016,3 hPa 0,0 l/m 0 min 2 min 0 W/m 43,9 km/h (6 Bft) 95,74 %
30.01.2016 02:48 8,8 C 8,3 C 6,7 C 89 % 2 lf 1016,4 hPa 0,0 l/m 0 min 2 min 0 W/m 31,4 km/h (5 Bft) 97,87 %
30.01.2016 02:50 8,8 C 8,3 C 6,7 C 89 % 2 lf 1016,3 hPa 0,0 l/m 0 min 2 min 0 W/m 31,4 km/h (5 Bft) 100,00 %
30.01.2016 02:52 8,8 C 8,3 C 6,7 C 89 % 3 lf 1016,3 hPa 0,0 l/m 0 min 2 min 0 W/m 37,7 km/h (5 Bft) 95,74 %
30.01.2016 02:54 8,8 C 8,3 C 6,7 C 89 % 2 lf 1016,5 hPa 0,0 l/m 0 min 2 min 0 W/m 43,9 km/h (6 Bft) 100,00 %
30.01.2016 02:56 8,8 C 8,3 C 6,7 C 89 % 1 lf 1016,4 hPa 0,0 l/m 0 min 2 min 0 W/m 41,8 km/h (6 Bft) 97,87 %
30.01.2016 02:58 8,8 C 8,3 C 6,7 C 89 % 1 lf 1016,4 hPa 0,0 l/m 0 min 2 min 0 W/m 35,6 km/h (5 Bft) 95,74 %
30.01.2016 03:00 8,8 C 8,3 C 7,2 C 88 % 2 lf 1016,4 hPa 0,0 l/m 0 min 2 min 0 W/m 33,5 km/h (5 Bft) 93,62 %
30.01.2016 03:02 8,8 C 8,3 C 6,7 C 88 % 1 lf 1016,3 hPa 0,0 l/m 0 min 2 min 0 W/m 35,6 km/h (5 Bft) 95,74 %
30.01.2016 03:04 8,8 C 8,9 C 7,2 C 88 % 6 lf 1016,3 hPa 0,0 l/m 0 min 2 min 0 W/m 41,8 km/h (6 Bft) 95,74 %
30.01.2016 03:06 8,8 C 8,9 C 7,2 C 88 % 7 lf 1016,2 hPa 0,0 l/m 0 min 2 min 0 W/m 35,6 km/h (5 Bft) 95,65 %
30.01.2016 03:08 8,8 C 8,9 C 7,2 C 88 % 7 lf 1016,1 hPa 0,0 l/m 0 min 2 min 0 W/m 29,3 km/h (5 Bft) 95,74 %
30.01.2016 03:10 8,8 C 8,9 C 6,7 C 88 % 6 lf 1016,1 hPa 0,0 l/m 0 min 2 min 0 W/m 37,7 km/h (5 Bft) 91,49 %
30.01.2016 03:12 8,8 C 8,3 C 6,7 C 88 % 6 lf 1016,1 hPa 0,0 l/m 0 min 2 min 0 W/m 52,3 km/h (7 Bft) 95,74 %
30.01.2016 03:14 8,8 C 8,3 C 6,7 C 88 % 4 lf 1016,0 hPa 0,0 l/m 0 min 2 min 0 W/m 52,3 km/h (7 Bft) 97,87 %
30.01.2016 03:16 8,8 C 8,3 C 6,7 C 88 % 7 lf 1016,0 hPa 0,0 l/m 0 min 2 min 0 W/m 37,7 km/h (5 Bft) 93,62 %
30.01.2016 03:18 8,8 C 8,3 C 6,7 C 88 % 4 lf 1015,8 hPa 0,0 l/m 0 min 2 min 0 W/m 39,7 km/h (6 Bft) 95,65 %
30.01.2016 03:20 8,8 C 8,3 C 6,7 C 88 % 4 lf 1015,8 hPa 0,0 l/m 0 min 2 min 0 W/m 33,5 km/h (5 Bft) 97,87 %
30.01.2016 03:22 8,8 C 8,3 C 6,7 C 88 % 10 lf 1015,8 hPa 0,0 l/m 0 min 2 min 0 W/m 37,7 km/h (5 Bft) 91,49 %
30.01.2016 03:24 8,8 C 8,3 C 6,7 C 88 % 11 lf 1015,7 hPa 0,0 l/m 0 min 2 min 0 W/m 25,1 km/h (4 Bft) 91,49 %
30.01.2016 03:26 8,8 C 8,3 C 6,7 C 88 % 13 lf 1015,7 hPa 0,0 l/m 0 min 2 min 0 W/m 23,0 km/h (4 Bft) 91,49 %
30.01.2016 03:28 8,8 C 7,8 C 6,7 C 88 % 13 lf 1015,7 hPa 0,0 l/m 0 min 2 min 0 W/m 27,2 km/h (4 Bft) 95,65 %
30.01.2016 03:30 8,8 C 7,8 C 6,7 C 88 % 15 lf 1015,6 hPa 0,0 l/m 0 min 2 min 0 W/m 25,1 km/h (4 Bft) 97,87 %
30.01.2016 03:32 8,8 C 7,8 C 6,7 C 89 % 15 lf 1015,6 hPa 0,0 l/m 0 min 2 min 0 W/m 37,7 km/h (5 Bft) 97,87 %
30.01.2016 03:34 8,8 C 7,8 C 6,7 C 89 % 15 lf 1015,4 hPa 0,0 l/m 0 min 2 min 0 W/m 31,4 km/h (5 Bft) 95,74 %
30.01.2016 03:36 8,8 C 7,8 C 6,7 C 89 % 15 lf 1015,4 hPa 0,0 l/m 0 min 2 min 0 W/m 41,8 km/h (6 Bft) 97,87 %
30.01.2016 03:38 8,8 C 7,8 C 6,7 C 89 % 15 lf 1015,5 hPa 0,0 l/m 0 min 2 min 0 W/m 27,2 km/h (4 Bft) 97,87 %
30.01.2016 03:40 8,8 C 8,3 C 6,7 C 89 % 15 lf 1015,4 hPa 0,0 l/m 0 min 2 min 0 W/m 29,3 km/h (5 Bft) 93,48 %
30.01.2016 03:42 8,7 C 8,3 C 6,7 C 89 % 15 lf 1015,4 hPa 0,0 l/m 0 min 2 min 0 W/m 39,7 km/h (6 Bft) 93,62 %
30.01.2016 03:44 8,7 C 8,3 C 6,7 C 89 % 15 lf 1015,3 hPa 0,0 l/m 0 min 2 min 0 W/m 37,7 km/h (5 Bft) 97,87 %
30.01.2016 03:46 8,7 C 8,3 C 6,7 C 89 % 15 lf 1015,2 hPa 0,0 l/m 0 min 2 min 0 W/m 25,1 km/h (4 Bft) 97,87 %
30.01.2016 03:48 8,7 C 8,3 C 6,7 C 89 % 15 lf 1015,2 hPa 0,0 l/m 0 min 2 min 0 W/m 27,2 km/h (4 Bft) 95,74 %
30.01.2016 03:50 8,7 C 8,3 C 6,7 C 89 % 14 lf 1015,1 hPa 0,0 l/m 0 min 2 min 0 W/m 27,2 km/h (4 Bft) 97,87 %
30.01.2016 03:52 8,7 C 8,3 C 6,7 C 89 % 15 lf 1015,1 hPa 0,0 l/m 0 min 2 min 0 W/m 35,6 km/h (5 Bft) 95,65 %
30.01.2016 03:54 8,7 C 8,3 C 6,7 C 89 % 14 lf 1015,0 hPa 0,0 l/m 0 min 2 min 0 W/m 37,7 km/h (5 Bft) 97,87 %
30.01.2016 03:56 8,7 C 8,3 C 6,7 C 89 % 15 lf 1015,0 hPa 0,0 l/m 0 min 2 min 0 W/m 29,3 km/h (5 Bft) 97,87 %
30.01.2016 03:58 8,7 C 8,3 C 6,7 C 89 % 14 lf 1015,0 hPa 0,0 l/m 0 min 2 min 0 W/m 43,9 km/h (6 Bft) 93,62 %
30.01.2016 04:00 8,7 C 8,3 C 6,7 C 89 % 14 lf 1015,0 hPa 0,2 l/m 0 min 2 min 0 W/m 35,6 km/h (5 Bft) 97,87 %
30.01.2016 04:05 8,7 C 8,3 C 6,7 C 89 % 14 lf 1014,7 hPa 0,0 l/m 0 min 2 min 0 W/m 37,7 km/h (5 Bft) 95,38 %
30.01.2016 04:06 8,7 C 8,3 C 6,7 C 89 % 14 lf 1014,7 hPa 0,0 l/m 0 min 1 min 0 W/m 35,6 km/h (5 Bft) 95,65 %
30.01.2016 04:08 8,7 C 8,3 C 6,7 C 89 % 14 lf 1014,6 hPa 0,0 l/m 0 min 2 min 0 W/m 31,4 km/h (5 Bft) 97,87 %
30.01.2016 04:10 8,7 C 8,3 C 6,7 C 89 % 14 lf 1014,8 hPa 0,0 l/m 0 min 2 min 0 W/m 43,9 km/h (6 Bft) 93,62 %
30.01.2016 04:12 8,8 C 8,3 C 6,7 C 89 % 14 lf 1014,7 hPa 0,0 l/m 0 min 2 min 0 W/m 31,4 km/h (5 Bft) 95,74 %
30.01.2016 04:14 8,8 C 8,3 C 6,7 C 89 % 15 lf 1014,6 hPa 0,0 l/m 0 min 2 min 0 W/m 50,2 km/h (7 Bft) 91,30 %
30.01.2016 04:16 8,8 C 7,8 C 6,7 C 89 % 15 lf 1014,6 hPa 0,0 l/m 0 min 2 min 0 W/m 35,6 km/h (5 Bft) 97,87 %
30.01.2016 04:18 8,8 C 7,8 C 6,7 C 89 % 15 lf 1014,5 hPa 0,0 l/m 0 min 2 min 0 W/m 37,7 km/h (5 Bft) 100,00 %
30.01.2016 04:20 8,8 C 7,8 C 6,7 C 89 % 15 lf 1014,5 hPa 0,0 l/m 0 min 2 min 0 W/m 35,6 km/h (5 Bft) 89,36 %
30.01.2016 04:22 8,8 C 8,3 C 6,7 C 89 % 13 lf 1014,5 hPa 0,0 l/m 0 min 2 min 0 W/m 35,6 km/h (5 Bft) 95,74 %
30.01.2016 04:24 8,8 C 8,3 C 6,7 C 89 % 12 lf 1014,5 hPa 0,0 l/m 0 min 2 min 0 W/m 37,7 km/h (5 Bft) 91,49 %
30.01.2016 04:26 8,8 C 8,3 C 6,7 C 89 % 12 lf 1014,3 hPa 0,0 l/m 0 min 2 min 0 W/m 31,4 km/h (5 Bft) 95,65 %
30.01.2016 04:28 8,8 C 8,3 C 6,7 C 89 % 8 lf 1014,3 hPa 0,0 l/m 0 min 2 min 0 W/m 43,9 km/h (6 Bft) 87,23 %
30.01.2016 04:30 8,8 C 8,3 C 6,7 C 89 % 4 lf 1014,3 hPa 0,0 l/m 0 min 2 min 0 W/m 52,3 km/h (7 Bft) 93,62 %
30.01.2016 04:32 8,8 C 8,3 C 6,7 C 89 % 3 lf 1014,2 hPa 0,0 l/m 0 min 2 min 0 W/m 39,7 km/h (6 Bft) 95,74 %
30.01.2016 04:34 8,8 C 8,3 C 6,7 C 89 % 1 lf 1014,2 hPa 0,0 l/m 0 min 2 min 0 W/m 43,9 km/h (6 Bft) 93,62 %
30.01.2016 04:36 8,8 C 8,3 C 6,7 C 89 % 0 lf 1014,2 hPa 0,0 l/m 0 min 2 min 0 W/m 39,7 km/h (6 Bft) 95,74 %
30.01.2016 04:38 8,8 C 8,9 C 6,7 C 89 % 1 lf 1014,0 hPa 0,0 l/m 0 min 2 min 0 W/m 39,7 km/h (6 Bft) 93,62 %
30.01.2016 04:40 8,8 C 8,9 C 6,7 C 89 % 0 lf 1014,1 hPa 0,0 l/m 0 min 2 min 0 W/m 39,7 km/h (6 Bft) 93,48 %
30.01.2016 04:42 8,9 C 8,9 C 6,7 C 89 % 1 lf 1014,0 hPa 0,0 l/m 0 min 2 min 0 W/m 29,3 km/h (5 Bft) 91,49 %
30.01.2016 04:44 8,8 C 8,9 C 6,7 C 89 % 2 lf 1014,0 hPa 0,0 l/m 0 min 2 min 0 W/m 39,7 km/h (6 Bft) 95,74 %
30.01.2016 04:46 8,8 C 8,9 C 6,7 C 89 % 1 lf 1013,8 hPa 0,0 l/m 0 min 2 min 0 W/m 46,0 km/h (6 Bft) 89,36 %
30.01.2016 04:48 8,9 C 8,9 C 6,7 C 89 % 0 lf 1013,9 hPa 0,0 l/m 0 min 2 min 0 W/m 43,9 km/h (6 Bft) 93,62 %
30.01.2016 04:50 8,9 C 8,9 C 6,7 C 89 % 6 lf 1013,9 hPa 0,0 l/m 0 min 2 min 0 W/m 37,7 km/h (5 Bft) 91,30 %
30.01.2016 04:52 8,9 C 8,9 C 6,7 C 89 % 3 lf 1013,7 hPa 0,0 l/m 0 min 2 min 0 W/m 31,4 km/h (5 Bft) 93,62 %
30.01.2016 04:54 8,9 C 8,9 C 6,7 C 89 % 1 lf 1013,7 hPa 0,0 l/m 0 min 2 min 0 W/m 31,4 km/h (5 Bft) 91,49 %
30.01.2016 04:56 8,9 C 8,9 C 6,7 C 89 % 0 lf 1013,9 hPa 0,0 l/m 0 min 2 min 0 W/m 37,7 km/h (5 Bft) 91,49 %
30.01.2016 04:58 8,9 C 8,9 C 6,7 C 89 % 0 lf 1013,9 hPa 0,0 l/m 0 min 2 min 0 W/m 46,0 km/h (6 Bft) 91,49 %
30.01.2016 05:00 8,9 C 8,9 C 6,7 C 88 % 0 lf 1013,6 hPa 0,0 l/m 0 min 2 min 0 W/m 50,2 km/h (7 Bft) 91,49 %
30.01.2016 05:02 8,9 C 8,9 C 6,7 C 88 % 3 lf 1013,8 hPa 0,0 l/m 0 min 2 min 0 W/m 56,5 km/h (7 Bft) 91,30 %
30.01.2016 05:04 8,9 C 8,9 C 7,2 C 88 % 3 lf 1013,7 hPa 0,0 l/m 0 min 2 min 0 W/m 39,7 km/h (6 Bft) 95,74 %
30.01.2016 05:06 8,9 C 8,9 C 7,2 C 88 % 1 lf 1013,7 hPa 0,0 l/m 0 min 2 min 0 W/m 41,8 km/h (6 Bft) 89,36 %
30.01.2016 05:08 8,9 C 8,9 C 7,2 C 88 % 2 lf 1013,6 hPa 0,0 l/m 0 min 2 min 0 W/m 35,6 km/h (5 Bft) 95,74 %
30.01.2016 05:10 8,9 C 8,9 C 6,7 C 89 % 1 lf 1013,6 hPa 0,0 l/m 0 min 2 min 0 W/m 31,4 km/h (5 Bft) 93,62 %
30.01.2016 05:12 8,9 C 8,9 C 6,7 C 89 % 3 lf 1013,5 hPa 0,0 l/m 0 min 2 min 0 W/m 29,3 km/h (5 Bft) 97,87 %
30.01.2016 05:14 8,9 C 8,3 C 6,7 C 89 % 11 lf 1013,5 hPa 0,0 l/m 0 min 2 min 0 W/m 33,5 km/h (5 Bft) 93,48 %
30.01.2016 05:16 8,9 C 8,3 C 6,7 C 89 % 10 lf 1013,4 hPa 0,0 l/m 0 min 2 min 0 W/m 35,6 km/h (5 Bft) 97,87 %
30.01.2016 05:18 8,9 C 8,3 C 6,7 C 89 % 15 lf 1013,5 hPa 0,0 l/m 0 min 2 min 0 W/m 41,8 km/h (6 Bft) 95,74 %
30.01.2016 05:20 8,9 C 8,3 C 6,7 C 89 % 15 lf 1013,5 hPa 0,2 l/m 0 min 2 min 0 W/m 35,6 km/h (5 Bft) 100,00 %
30.01.2016 05:22 8,9 C 7,8 C 6,7 C 89 % 15 lf 1013,3 hPa 0,0 l/m 0 min 2 min 0 W/m 39,7 km/h (6 Bft) 100,00 %
30.01.2016 05:24 8,8 C 7,8 C 6,7 C 89 % 15 lf 1013,4 hPa 0,0 l/m 0 min 2 min 0 W/m 29,3 km/h (5 Bft) 93,62 %
30.01.2016 05:26 8,8 C 7,8 C 6,7 C 89 % 15 lf 1013,3 hPa 0,0 l/m 0 min 2 min 0 W/m 25,1 km/h (4 Bft) 100,00 %
30.01.2016 05:28 8,8 C 7,8 C 6,7 C 89 % 15 lf 1013,3 hPa 0,0 l/m 0 min 2 min 0 W/m 37,7 km/h (5 Bft) 100,00 %
30.01.2016 05:30 8,8 C 7,8 C 6,7 C 89 % 15 lf 1013,3 hPa 0,0 l/m 0 min 2 min 0 W/m 27,2 km/h (4 Bft) 97,87 %
30.01.2016 05:32 8,7 C 7,8 C 6,7 C 90 % 15 lf 1013,3 hPa 0,0 l/m 0 min 2 min 0 W/m 48,1 km/h (6 Bft) 100,00 %
30.01.2016 05:34 8,7 C 7,8 C 6,7 C 90 % 15 lf 1013,1 hPa 0,0 l/m 0 min 2 min 0 W/m 27,2 km/h (4 Bft) 100,00 %
30.01.2016 05:36 8,7 C 7,8 C 6,7 C 90 % 15 lf 1013,2 hPa 0,0 l/m 0 min 2 min 0 W/m 37,7 km/h (5 Bft) 97,87 %
30.01.2016 05:38 8,7 C 7,8 C 6,7 C 90 % 15 lf 1013,1 hPa 0,0 l/m 0 min 2 min 0 W/m 43,9 km/h (6 Bft) 100,00 %
30.01.2016 05:40 8,7 C 7,8 C 6,7 C 90 % 15 lf 1013,0 hPa 0,0 l/m 0 min 2 min 0 W/m 37,7 km/h (5 Bft) 100,00 %
30.01.2016 05:42 8,6 C 7,8 C 6,7 C 90 % 15 lf 1013,0 hPa 0,0 l/m 0 min 2 min 0 W/m 33,5 km/h (5 Bft) 95,74 %
30.01.2016 05:44 8,6 C 7,8 C 6,7 C 91 % 15 lf 1013,1 hPa 0,0 l/m 0 min 2 min 0 W/m 41,8 km/h (6 Bft) 100,00 %
30.01.2016 05:46 8,6 C 7,8 C 6,7 C 91 % 15 lf 1012,9 hPa 0,2 l/m 0 min 2 min 0 W/m 33,5 km/h (5 Bft) 97,87 %
30.01.2016 05:48 8,6 C 7,8 C 6,7 C 91 % 15 lf 1013,0 hPa 0,0 l/m 0 min 2 min 0 W/m 37,7 km/h (5 Bft) 100,00 %
30.01.2016 05:50 8,6 C 7,8 C 6,7 C 91 % 15 lf 1013,0 hPa 0,0 l/m 0 min 2 min 0 W/m 39,7 km/h (6 Bft) 100,00 %
30.01.2016 05:52 8,6 C 7,8 C 6,7 C 91 % 15 lf 1012,9 hPa 0,0 l/m 0 min 2 min 0 W/m 37,7 km/h (5 Bft) 100,00 %
30.01.2016 05:54 8,5 C 7,8 C 6,7 C 91 % 15 lf 1012,8 hPa 0,0 l/m 0 min 2 min 0 W/m 25,1 km/h (4 Bft) 100,00 %
30.01.2016 05:56 8,5 C 7,8 C 6,7 C 91 % 15 lf 1012,7 hPa 0,2 l/m 0 min 2 min 0 W/m 33,5 km/h (5 Bft) 100,00 %
30.01.2016 05:58 8,4 C 7,8 C 6,7 C 91 % 15 lf 1012,7 hPa 0,0 l/m 0 min 2 min 0 W/m 31,4 km/h (5 Bft) 97,87 %
30.01.2016 06:00 8,4 C 7,8 C 6,7 C 92 % 15 lf 1012,6 hPa 0,0 l/m 0 min 2 min 0 W/m 33,5 km/h (5 Bft) 100,00 %
30.01.2016 06:02 8,4 C 7,8 C 6,7 C 92 % 15 lf 1012,5 hPa 0,0 l/m 0 min 2 min 0 W/m 39,7 km/h (6 Bft) 100,00 %
30.01.2016 06:04 8,4 C 7,8 C 6,7 C 92 % 15 lf 1012,4 hPa 0,2 l/m 0 min 2 min 0 W/m 35,6 km/h (5 Bft) 100,00 %
30.01.2016 06:06 8,4 C 7,8 C 6,7 C 92 % 15 lf 1012,3 hPa 0,0 l/m 0 min 2 min 0 W/m 46,0 km/h (6 Bft) 97,87 %
30.01.2016 06:08 8,4 C 7,8 C 6,7 C 92 % 15 lf 1012,4 hPa 0,0 l/m 0 min 2 min 0 W/m 35,6 km/h (5 Bft) 100,00 %
30.01.2016 06:10 8,4 C 7,8 C 6,7 C 92 % 15 lf 1012,3 hPa 0,0 l/m 0 min 2 min 0 W/m 31,4 km/h (5 Bft) 100,00 %
30.01.2016 06:12 8,4 C 7,8 C 6,1 C 92 % 15 lf 1012,4 hPa 0,0 l/m 0 min 2 min 0 W/m 37,7 km/h (5 Bft) 97,83 %
30.01.2016 06:14 8,4 C 7,8 C 6,1 C 92 % 15 lf 1012,2 hPa 0,0 l/m 0 min 2 min 0 W/m 20,9 km/h (4 Bft) 100,00 %
30.01.2016 06:16 8,4 C 7,8 C 6,1 C 92 % 15 lf 1012,1 hPa 0,2 l/m 0 min 2 min 0 W/m 33,5 km/h (5 Bft) 100,00 %
30.01.2016 06:18 8,4 C 7,8 C 6,7 C 92 % 15 lf 1012,2 hPa 0,0 l/m 0 min 2 min 0 W/m 37,7 km/h (5 Bft) 97,87 %
30.01.2016 06:20 8,4 C 7,8 C 6,7 C 92 % 15 lf 1012,3 hPa 0,0 l/m 0 min 2 min 0 W/m 54,4 km/h (7 Bft) 97,87 %
30.01.2016 06:22 8,3 C 7,8 C 6,7 C 93 % 15 lf 1012,1 hPa 0,0 l/m 0 min 2 min 0 W/m 27,2 km/h (4 Bft) 97,87 %
30.01.2016 06:24 8,3 C 7,8 C 6,7 C 93 % 15 lf 1012,0 hPa 0,2 l/m 0 min 2 min 0 W/m 56,5 km/h (7 Bft) 95,65 %
30.01.2016 06:26 8,3 C 7,8 C 6,7 C 93 % 15 lf 1011,9 hPa 0,0 l/m 0 min 2 min 0 W/m 37,7 km/h (5 Bft) 100,00 %
30.01.2016 06:28 8,3 C 7,8 C 6,1 C 93 % 15 lf 1011,9 hPa 0,0 l/m 0 min 2 min 0 W/m 27,2 km/h (4 Bft) 100,00 %
30.01.2016 06:30 8,3 C 7,8 C 6,7 C 93 % 15 lf 1012,0 hPa 0,2 l/m 0 min 2 min 0 W/m 35,6 km/h (5 Bft) 100,00 %
30.01.2016 06:32 8,3 C 7,8 C 6,7 C 93 % 15 lf 1011,8 hPa 0,0 l/m 0 min 2 min 0 W/m 33,5 km/h (5 Bft) 95,74 %
30.01.2016 06:34 8,3 C 7,8 C 6,7 C 93 % 15 lf 1011,9 hPa 0,0 l/m 0 min 2 min 0 W/m 50,2 km/h (7 Bft) 100,00 %
30.01.2016 06:36 8,3 C 7,8 C 6,7 C 93 % 15 lf 1011,8 hPa 0,0 l/m 0 min 2 min 0 W/m 35,6 km/h (5 Bft) 100,00 %
30.01.2016 06:38 8,3 C 7,8 C 6,7 C 93 % 15 lf 1011,8 hPa 0,0 l/m 0 min 2 min 0 W/m 48,1 km/h (6 Bft) 95,74 %
30.01.2016 06:40 8,3 C 7,8 C 6,7 C 93 % 15 lf 1011,8 hPa 0,0 l/m 0 min 2 min 0 W/m 25,1 km/h (4 Bft) 97,83 %
30.01.2016 06:42 8,3 C 7,8 C 6,7 C 93 % 15 lf 1011,9 hPa 0,0 l/m 0 min 2 min 0 W/m 39,7 km/h (6 Bft) 97,87 %
30.01.2016 06:44 8,3 C 7,8 C 6,7 C 93 % 15 lf 1011,9 hPa 0,0 l/m 0 min 2 min 0 W/m 29,3 km/h (5 Bft) 97,87 %
30.01.2016 06:46 8,3 C 7,8 C 6,7 C 93 % 15 lf 1011,9 hPa 0,2 l/m 0 min 2 min 0 W/m 33,5 km/h (5 Bft) 95,74 %
30.01.2016 06:48 8,3 C 7,8 C 6,7 C 93 % 15 lf 1011,9 hPa 0,0 l/m 0 min 2 min 0 W/m 31,4 km/h (5 Bft) 93,62 %
30.01.2016 06:50 8,3 C 7,8 C 6,7 C 93 % 15 lf 1011,8 hPa 0,2 l/m 0 min 2 min 0 W/m 43,9 km/h (6 Bft) 93,62 %
30.01.2016 06:52 8,3 C 7,8 C 6,7 C 93 % 15 lf 1011,7 hPa 0,0 l/m 0 min 2 min 0 W/m 50,2 km/h (7 Bft) 100,00 %
30.01.2016 06:54 8,3 C 7,8 C 6,7 C 93 % 15 lf 1011,9 hPa 0,0 l/m 0 min 2 min 0 W/m 46,0 km/h (6 Bft) 100,00 %
30.01.2016 06:56 8,3 C 7,8 C 6,1 C 94 % 15 lf 1011,9 hPa 0,0 l/m 0 min 2 min 0 W/m 37,7 km/h (5 Bft) 95,74 %
30.01.2016 06:58 8,3 C 7,8 C 6,1 C 94 % 15 lf 1011,8 hPa 0,0 l/m 0 min 2 min 0 W/m 48,1 km/h (6 Bft) 93,62 %
30.01.2016 07:00 8,3 C 7,8 C 6,1 C 94 % 15 lf 1011,6 hPa 0,0 l/m 0 min 2 min 0 W/m 37,7 km/h (5 Bft) 92,00 %
30.01.2016 07:02 8,3 C 7,8 C 6,1 C 94 % 15 lf 1011,6 hPa 0,0 l/m 0 min 2 min 0 W/m 43,9 km/h (6 Bft) 91,49 %
30.01.2016 07:04 8,2 C 7,8 C 6,1 C 94 % 15 lf 1011,6 hPa 0,2 l/m 0 min 2 min 0 W/m 41,8 km/h (6 Bft) 93,62 %
30.01.2016 07:06 8,2 C 7,8 C 6,1 C 94 % 15 lf 1011,6 hPa 0,2 l/m 0 min 2 min 0 W/m 48,1 km/h (6 Bft) 95,74 %
30.01.2016 07:08 8,2 C 7,8 C 6,1 C 94 % 15 lf 1011,5 hPa 0,0 l/m 0 min 2 min 0 W/m 43,9 km/h (6 Bft) 91,49 %
30.01.2016 07:10 8,2 C 7,8 C 6,1 C 94 % 15 lf 1011,6 hPa 0,0 l/m 0 min 2 min 0 W/m 35,6 km/h (5 Bft) 95,65 %
30.01.2016 07:12 8,2 C 7,8 C 6,1 C 94 % 15 lf 1011,5 hPa 0,0 l/m 0 min 2 min 0 W/m 27,2 km/h (4 Bft) 97,87 %
30.01.2016 07:14 8,2 C 7,2 C 6,1 C 94 % 15 lf 1011,5 hPa 0,0 l/m 0 min 2 min 0 W/m 41,8 km/h (6 Bft) 93,62 %
30.01.2016 07:16 8,2 C 7,2 C 6,1 C 94 % 15 lf 1011,4 hPa 0,2 l/m 0 min 2 min 0 W/m 41,8 km/h (6 Bft) 95,74 %
30.01.2016 07:18 8,1 C 7,2 C 6,1 C 94 % 15 lf 1011,1 hPa 0,0 l/m 0 min 2 min 0 W/m 50,2 km/h (7 Bft) 89,36 %
30.01.2016 07:20 8,1 C 7,2 C 6,1 C 94 % 15 lf 1011,3 hPa 0,0 l/m 0 min 2 min 0 W/m 56,5 km/h (7 Bft) 91,49 %
30.01.2016 07:22 8,1 C 7,2 C 6,1 C 94 % 15 lf 1011,3 hPa 0,2 l/m 0 min 2 min 0 W/m 37,7 km/h (5 Bft) 93,48 %
30.01.2016 07:24 8,1 C 7,2 C 6,1 C 94 % 15 lf 1011,4 hPa 0,0 l/m 0 min 2 min 0 W/m 50,2 km/h (7 Bft) 93,62 %
30.01.2016 07:26 8,1 C 7,2 C 6,1 C 94 % 15 lf 1011,3 hPa 0,0 l/m 0 min 2 min 0 W/m 39,7 km/h (6 Bft) 93,62 %
30.01.2016 07:28 8,1 C 7,2 C 6,1 C 94 % 15 lf 1011,3 hPa 0,0 l/m 0 min 2 min 0 W/m 37,7 km/h (5 Bft) 89,36 %
30.01.2016 07:30 8,1 C 7,2 C 6,1 C 94 % 15 lf 1011,1 hPa 0,0 l/m 0 min 2 min 0 W/m 27,2 km/h (4 Bft) 91,49 %
30.01.2016 07:32 8,1 C 7,2 C 6,1 C 94 % 15 lf 1011,2 hPa 0,0 l/m 0 min 2 min 0 W/m 43,9 km/h (6 Bft) 91,49 %
30.01.2016 07:34 8,1 C 7,2 C 6,1 C 94 % 15 lf 1011,0 hPa 0,0 l/m 0 min 2 min 0 W/m 39,7 km/h (6 Bft) 93,02 %
30.01.2016 07:36 8,1 C 7,2 C 6,1 C 94 % 15 lf 1010,9 hPa 0,0 l/m 0 min 2 min 0 W/m 39,7 km/h (6 Bft) 91,49 %
30.01.2016 07:38 8,1 C 7,2 C 6,1 C 94 % 15 lf 1010,9 hPa 0,2 l/m 0 min 2 min 0 W/m 33,5 km/h (5 Bft) 93,62 %
30.01.2016 07:40 8,1 C 7,2 C 6,1 C 94 % 15 lf 1010,9 hPa 0,0 l/m 0 min 2 min 0 W/m 35,6 km/h (5 Bft) 87,23 %
30.01.2016 07:42 8,1 C 7,2 C 6,1 C 94 % 15 lf 1010,9 hPa 0,0 l/m 0 min 2 min 0 W/m 35,6 km/h (5 Bft) 95,65 %
30.01.2016 07:44 8,1 C 7,2 C 6,1 C 94 % 15 lf 1010,9 hPa 0,0 l/m 0 min 2 min 0 W/m 39,7 km/h (6 Bft) 93,62 %
30.01.2016 07:46 8,1 C 7,2 C 6,1 C 94 % 15 lf 1010,8 hPa 0,0 l/m 0 min 2 min 0 W/m 39,7 km/h (6 Bft) 95,74 %
30.01.2016 07:48 8,1 C 7,2 C 6,1 C 94 % 15 lf 1010,9 hPa 0,0 l/m 0 min 2 min 0 W/m 35,6 km/h (5 Bft) 93,62 %
30.01.2016 07:50 8,1 C 7,2 C 6,1 C 94 % 15 lf 1010,9 hPa 0,0 l/m 0 min 2 min 0 W/m 31,4 km/h (5 Bft) 93,62 %
30.01.2016 07:52 8,1 C 7,2 C 6,1 C 94 % 15 lf 1010,7 hPa 0,0 l/m 0 min 2 min 0 W/m 43,9 km/h (6 Bft) 95,65 %
30.01.2016 07:54 8,1 C 7,2 C 6,1 C 94 % 15 lf 1010,8 hPa 0,0 l/m 0 min 2 min 0 W/m 37,7 km/h (5 Bft) 95,83 %
30.01.2016 07:56 8,0 C 7,8 C 6,1 C 94 % 15 lf 1010,7 hPa 0,2 l/m 0 min 2 min 0 W/m 56,5 km/h (7 Bft) 95,74 %
30.01.2016 07:58 8,0 C 7,8 C 6,1 C 94 % 15 lf 1010,8 hPa 0,0 l/m 0 min 0 min 0 W/m 39,7 km/h (6 Bft) 95,74 %
30.01.2016 08:00 8,0 C 7,8 C 6,1 C 94 % 15 lf 1010,7 hPa 0,0 l/m 0 min 2 min 0 W/m 46,0 km/h (6 Bft) 95,74 %
30.01.2016 08:02 8,0 C 7,8 C 6,1 C 94 % 15 lf 1010,8 hPa 0,0 l/m 0 min 2 min 0 W/m 27,2 km/h (4 Bft) 93,62 %
30.01.2016 08:04 8,1 C 7,8 C 6,1 C 94 % 15 lf 1010,8 hPa 0,0 l/m 0 min 2 min 0 W/m 50,2 km/h (7 Bft) 91,30 %
30.01.2016 08:06 8,1 C 7,8 C 6,1 C 94 % 15 lf 1010,7 hPa 0,0 l/m 0 min 2 min 0 W/m 52,3 km/h (7 Bft) 95,74 %
30.01.2016 08:08 8,1 C 7,8 C 6,1 C 94 % 15 lf 1010,8 hPa 0,0 l/m 0 min 2 min 0 W/m 41,8 km/h (6 Bft) 89,36 %
30.01.2016 08:10 8,1 C 7,8 C 6,1 C 94 % 15 lf 1010,8 hPa 0,0 l/m 0 min 2 min 0 W/m 41,8 km/h (6 Bft) 97,87 %
30.01.2016 08:12 8,1 C 7,8 C 6,1 C 94 % 15 lf 1010,7 hPa 0,0 l/m 0 min 2 min 0 W/m 46,0 km/h (6 Bft) 97,87 %
30.01.2016 08:14 8,1 C 7,8 C 6,1 C 94 % 15 lf 1010,7 hPa 0,0 l/m 0 min 2 min 0 W/m 46,0 km/h (6 Bft) 95,74 %
30.01.2016 08:16 8,1 C 7,8 C 6,1 C 94 % 15 lf 1010,7 hPa 0,0 l/m 0 min 2 min 0 W/m 52,3 km/h (7 Bft) 95,65 %
30.01.2016 08:18 8,1 C 7,2 C 6,1 C 94 % 15 lf 1010,6 hPa 0,0 l/m 0 min 2 min 0 W/m 41,8 km/h (6 Bft) 95,74 %
30.01.2016 08:20 8,1 C 7,8 C 6,1 C 94 % 15 lf 1010,7 hPa 0,0 l/m 0 min 2 min 0 W/m 41,8 km/h (6 Bft) 95,74 %
30.01.2016 08:22 8,1 C 7,2 C 6,1 C 94 % 15 lf 1010,7 hPa 0,0 l/m 0 min 2 min 0 W/m 39,7 km/h (6 Bft) 95,74 %
30.01.2016 08:24 8,1 C 7,2 C 6,1 C 94 % 15 lf 1010,5 hPa 0,0 l/m 0 min 2 min 0 W/m 37,7 km/h (5 Bft) 97,87 %
30.01.2016 08:26 8,1 C 7,2 C 6,1 C 94 % 15 lf 1010,4 hPa 0,0 l/m 0 min 2 min 0 W/m 43,9 km/h (6 Bft) 97,87 %
30.01.2016 08:28 8,1 C 7,2 C 6,1 C 94 % 15 lf 1010,3 hPa 0,0 l/m 0 min 2 min 0 W/m 31,4 km/h (5 Bft) 100,00 %
30.01.2016 08:30 8,1 C 7,8 C 6,1 C 94 % 15 lf 1010,3 hPa 0,2 l/m 0 min 2 min 0 W/m 52,3 km/h (7 Bft) 97,87 %
30.01.2016 08:32 8,1 C 7,2 C 6,1 C 94 % 15 lf 1010,2 hPa 0,0 l/m 0 min 2 min 0 W/m 52,3 km/h (7 Bft) 91,49 %
30.01.2016 08:34 8,1 C 7,2 C 6,1 C 94 % 15 lf 1010,2 hPa 0,0 l/m 0 min 2 min 4 W/m 48,1 km/h (6 Bft) 93,62 %
30.01.2016 08:36 8,1 C 7,2 C 6,1 C 94 % 15 lf 1010,0 hPa 0,0 l/m 0 min 2 min 5 W/m 31,4 km/h (5 Bft) 97,87 %
30.01.2016 08:38 8,1 C 7,2 C 6,1 C 94 % 15 lf 1010,0 hPa 0,2 l/m 0 min 2 min 6 W/m 37,7 km/h (5 Bft) 97,87 %
30.01.2016 08:40 8,1 C 7,2 C 6,1 C 94 % 15 lf 1010,1 hPa 0,0 l/m 0 min 2 min 7 W/m 37,7 km/h (5 Bft) 97,83 %
30.01.2016 08:42 8,1 C 7,2 C 6,1 C 94 % 15 lf 1010,0 hPa 0,0 l/m 0 min 2 min 7 W/m 48,1 km/h (6 Bft) 93,62 %
30.01.2016 08:44 8,1 C 7,2 C 6,1 C 94 % 15 lf 1010,0 hPa 0,0 l/m 0 min 2 min 7 W/m 43,9 km/h (6 Bft) 97,87 %
30.01.2016 08:46 8,1 C 7,8 C 6,1 C 94 % 15 lf 1010,0 hPa 0,0 l/m 0 min 2 min 7 W/m 37,7 km/h (5 Bft) 93,62 %
30.01.2016 08:48 8,1 C 7,8 C 6,1 C 94 % 15 lf 1010,0 hPa 0,0 l/m 0 min 2 min 7 W/m 33,5 km/h (5 Bft) 97,87 %
30.01.2016 08:50 8,1 C 7,8 C 6,1 C 94 % 15 lf 1010,0 hPa 0,0 l/m 0 min 2 min 7 W/m 39,7 km/h (6 Bft) 97,87 %
30.01.2016 08:52 8,1 C 7,8 C 6,1 C 94 % 15 lf 1010,0 hPa 0,0 l/m 0 min 2 min 8 W/m 56,5 km/h (7 Bft) 95,65 %
30.01.2016 08:54 8,1 C 7,8 C 6,1 C 94 % 15 lf 1010,0 hPa 0,0 l/m 0 min 2 min 9 W/m 56,5 km/h (7 Bft) 97,87 %
30.01.2016 08:56 8,1 C 7,8 C 6,1 C 95 % 15 lf 1009,9 hPa 0,0 l/m 0 min 2 min 11 W/m 33,5 km/h (5 Bft) 95,74 %
30.01.2016 08:58 8,1 C 7,8 C 6,1 C 95 % 15 lf 1010,0 hPa 0,0 l/m 0 min 2 min 11 W/m 39,7 km/h (6 Bft) 91,49 %
30.01.2016 09:00 8,1 C 7,8 C 6,1 C 94 % 15 lf 1009,8 hPa 0,0 l/m 0 min 2 min 13 W/m 37,7 km/h (5 Bft) 100,00 %
30.01.2016 09:02 8,1 C 7,8 C 6,1 C 94 % 15 lf 1009,9 hPa 0,2 l/m 0 min 2 min 12 W/m 41,8 km/h (6 Bft) 97,87 %
30.01.2016 09:04 8,1 C 7,2 C 6,1 C 94 % 15 lf 1009,6 hPa 0,0 l/m 0 min 2 min 12 W/m 52,3 km/h (7 Bft) 100,00 %
30.01.2016 09:06 8,1 C 7,2 C 6,1 C 94 % 15 lf 1009,8 hPa 0,0 l/m 0 min 2 min 10 W/m 46,0 km/h (6 Bft) 97,87 %
30.01.2016 09:08 8,1 C 7,2 C 6,1 C 94 % 15 lf 1009,7 hPa 0,0 l/m 0 min 2 min 7 W/m 41,8 km/h (6 Bft) 97,87 %
30.01.2016 09:10 8,1 C 7,2 C 6,1 C 94 % 15 lf 1010,1 hPa 0,0 l/m 0 min 2 min 10 W/m 46,0 km/h (6 Bft) 100,00 %
30.01.2016 09:12 8,1 C 7,2 C 6,1 C 94 % 15 lf 1009,7 hPa 0,0 l/m 0 min 2 min 11 W/m 35,6 km/h (5 Bft) 97,87 %
30.01.2016 09:14 8,1 C 7,8 C 6,1 C 94 % 15 lf 1009,6 hPa 0,0 l/m 0 min 2 min 8 W/m 35,6 km/h (5 Bft) 97,83 %
30.01.2016 09:16 8,1 C 7,2 C 6,1 C 94 % 15 lf 1009,7 hPa 0,0 l/m 0 min 2 min 8 W/m 50,2 km/h (7 Bft) 97,87 %
30.01.2016 09:18 8,1 C 7,2 C 6,1 C 94 % 15 lf 1009,8 hPa 0,0 l/m 0 min 2 min 6 W/m 43,9 km/h (6 Bft) 95,74 %
30.01.2016 09:20 8,1 C 7,2 C 6,1 C 94 % 15 lf 1009,9 hPa 0,2 l/m 0 min 2 min 9 W/m 48,1 km/h (6 Bft) 100,00 %
30.01.2016 09:22 8,1 C 7,2 C 6,1 C 94 % 15 lf 1009,6 hPa 0,0 l/m 0 min 2 min 15 W/m 29,3 km/h (5 Bft) 97,87 %
30.01.2016 09:24 8,1 C 7,2 C 6,1 C 94 % 15 lf 1009,6 hPa 0,0 l/m 0 min 2 min 15 W/m 41,8 km/h (6 Bft) 95,74 %
30.01.2016 09:26 8,1 C 7,2 C 6,1 C 94 % 15 lf 1009,4 hPa 0,0 l/m 0 min 2 min 13 W/m 58,6 km/h (7 Bft) 95,65 %
30.01.2016 09:28 8,1 C 7,2 C 6,1 C 94 % 15 lf 1009,6 hPa 0,0 l/m 0 min 2 min 16 W/m 46,0 km/h (6 Bft) 97,87 %
30.01.2016 09:30 8,1 C 7,2 C 6,1 C 94 % 15 lf 1009,5 hPa 0,0 l/m 0 min 2 min 23 W/m 46,0 km/h (6 Bft) 100,00 %
30.01.2016 09:32 8,1 C 7,2 C 6,1 C 94 % 15 lf 1009,3 hPa 0,2 l/m 0 min 2 min 26 W/m 35,6 km/h (5 Bft) 95,74 %
30.01.2016 09:34 8,1 C 7,2 C 6,1 C 94 % 15 lf 1009,4 hPa 0,0 l/m 0 min 2 min 31 W/m 56,5 km/h (7 Bft) 97,87 %
30.01.2016 09:36 8,1 C 7,2 C 6,1 C 94 % 15 lf 1009,4 hPa 0,0 l/m 0 min 2 min 32 W/m 39,7 km/h (6 Bft) 97,87 %
30.01.2016 09:38 8,1 C 7,8 C 6,1 C 94 % 15 lf 1009,4 hPa 0,0 l/m 0 min 2 min 33 W/m 41,8 km/h (6 Bft) 100,00 %
30.01.2016 09:40 8,1 C 7,8 C 6,1 C 94 % 15 lf 1009,5 hPa 0,2 l/m 0 min 2 min 32 W/m 43,9 km/h (6 Bft) 89,36 %
30.01.2016 09:42 8,1 C 7,8 C 6,1 C 94 % 15 lf 1009,0 hPa 0,0 l/m 0 min 2 min 32 W/m 54,4 km/h (7 Bft) 95,74 %
30.01.2016 09:44 8,1 C 7,8 C 6,1 C 94 % 15 lf 1009,1 hPa 0,0 l/m 0 min 2 min 33 W/m 50,2 km/h (7 Bft) 97,87 %
30.01.2016 09:46 8,1 C 7,8 C 6,1 C 94 % 15 lf 1009,2 hPa 0,0 l/m 0 min 2 min 35 W/m 33,5 km/h (5 Bft) 97,87 %
30.01.2016 09:48 8,2 C 7,8 C 6,1 C 94 % 15 lf 1009,2 hPa 0,0 l/m 0 min 2 min 40 W/m 41,8 km/h (6 Bft) 95,74 %
30.01.2016 09:50 8,2 C 7,8 C 6,1 C 94 % 15 lf 1009,2 hPa 0,0 l/m 0 min 2 min 51 W/m 52,3 km/h (7 Bft) 95,65 %
30.01.2016 09:52 8,2 C 7,8 C 6,1 C 94 % 15 lf 1009,3 hPa 0,0 l/m 0 min 2 min 60 W/m 50,2 km/h (7 Bft) 97,87 %
30.01.2016 09:54 8,2 C 7,8 C 6,1 C 94 % 15 lf 1009,2 hPa 0,0 l/m 0 min 2 min 69 W/m 56,5 km/h (7 Bft) 97,87 %
30.01.2016 09:56 8,2 C 7,8 C 6,7 C 94 % 15 lf 1009,0 hPa 0,0 l/m 0 min 2 min 71 W/m 39,7 km/h (6 Bft) 93,62 %
30.01.2016 09:58 8,2 C 7,8 C 6,1 C 94 % 15 lf 1009,2 hPa 0,0 l/m 0 min 2 min 59 W/m 43,9 km/h (6 Bft) 95,74 %
30.01.2016 10:00 8,2 C 7,8 C 6,7 C 93 % 15 lf 1009,0 hPa 0,0 l/m 0 min 2 min 73 W/m 37,7 km/h (5 Bft) 97,87 %
30.01.2016 10:02 8,2 C 7,8 C 6,7 C 93 % 15 lf 1009,0 hPa 0,0 l/m 0 min 2 min 76 W/m 46,0 km/h (6 Bft) 97,83 %
30.01.2016 10:04 8,2 C 7,8 C 6,1 C 93 % 15 lf 1009,1 hPa 0,0 l/m 0 min 2 min 55 W/m 54,4 km/h (7 Bft) 95,74 %
30.01.2016 10:06 8,2 C 7,8 C 6,1 C 93 % 15 lf 1009,0 hPa 0,0 l/m 0 min 2 min 53 W/m 39,7 km/h (6 Bft) 95,74 %
30.01.2016 10:08 8,2 C 7,8 C 6,1 C 93 % 15 lf 1009,0 hPa 0,0 l/m 0 min 2 min 57 W/m 43,9 km/h (6 Bft) 95,74 %
30.01.2016 10:10 8,3 C 7,8 C 6,1 C 93 % 15 lf 1008,9 hPa 0,0 l/m 0 min 2 min 46 W/m 43,9 km/h (6 Bft) 97,87 %
30.01.2016 10:12 8,3 C 7,8 C 6,1 C 93 % 15 lf 1008,9 hPa 0,0 l/m 0 min 2 min 36 W/m 46,0 km/h (6 Bft) 95,65 %
30.01.2016 10:14 8,3 C 7,8 C 6,1 C 93 % 15 lf 1008,9 hPa 0,0 l/m 0 min 2 min 47 W/m 50,2 km/h (7 Bft) 95,74 %
30.01.2016 10:16 8,3 C 7,8 C 6,1 C 93 % 15 lf 1008,8 hPa 0,0 l/m 0 min 2 min 62 W/m 39,7 km/h (6 Bft) 93,62 %
30.01.2016 10:18 8,3 C 7,8 C 6,7 C 93 % 15 lf 1008,9 hPa 0,0 l/m 0 min 2 min 47 W/m 31,4 km/h (5 Bft) 93,62 %
30.01.2016 10:20 8,3 C 7,8 C 6,7 C 93 % 15 lf 1008,9 hPa 0,0 l/m 0 min 2 min 50 W/m 46,0 km/h (6 Bft) 91,49 %
30.01.2016 10:22 8,3 C 7,8 C 6,7 C 93 % 15 lf 1008,9 hPa 0,0 l/m 0 min 2 min 55 W/m 35,6 km/h (5 Bft) 93,62 %
30.01.2016 10:24 8,3 C 7,8 C 6,1 C 93 % 15 lf 1008,8 hPa 0,2 l/m 0 min 2 min 47 W/m 43,9 km/h (6 Bft) 86,96 %
30.01.2016 10:26 8,3 C 7,8 C 6,1 C 93 % 15 lf 1008,8 hPa 0,0 l/m 0 min 2 min 39 W/m 56,5 km/h (7 Bft) 95,74 %
30.01.2016 10:28 8,3 C 7,8 C 6,1 C 93 % 15 lf 1008,7 hPa 0,0 l/m 0 min 2 min 40 W/m 43,9 km/h (6 Bft) 95,74 %
30.01.2016 10:30 8,3 C 7,8 C 6,1 C 93 % 15 lf 1008,7 hPa 0,0 l/m 0 min 2 min 53 W/m 43,9 km/h (6 Bft) 95,74 %
30.01.2016 10:32 8,3 C 7,8 C 6,1 C 93 % 15 lf 1008,6 hPa 0,0 l/m 0 min 2 min 54 W/m 50,2 km/h (7 Bft) 95,74 %
30.01.2016 10:34 8,3 C 7,8 C 6,1 C 93 % 15 lf 1008,6 hPa 0,0 l/m 0 min 2 min 53 W/m 43,9 km/h (6 Bft) 95,74 %
30.01.2016 10:36 8,3 C 7,8 C 6,1 C 93 % 15 lf 1008,6 hPa 0,0 l/m 0 min 2 min 50 W/m 46,0 km/h (6 Bft) 93,48 %
30.01.2016 10:38 8,3 C 7,8 C 6,1 C 93 % 15 lf 1008,6 hPa 0,2 l/m 0 min 2 min 52 W/m 50,2 km/h (7 Bft) 97,87 %
30.01.2016 10:40 8,3 C 7,8 C 6,1 C 93 % 15 lf 1008,6 hPa 0,0 l/m 0 min 2 min 52 W/m 52,3 km/h (7 Bft) 95,74 %
30.01.2016 10:42 8,3 C 7,8 C 6,7 C 93 % 15 lf 1008,6 hPa 0,0 l/m 0 min 2 min 59 W/m 35,6 km/h (5 Bft) 95,74 %
30.01.2016 10:44 8,3 C 7,8 C 6,7 C 93 % 15 lf 1008,5 hPa 0,0 l/m 0 min 2 min 61 W/m 39,7 km/h (6 Bft) 95,74 %
30.01.2016 10:46 8,3 C 7,8 C 6,7 C 93 % 15 lf 1008,5 hPa 0,0 l/m 0 min 2 min 64 W/m 41,8 km/h (6 Bft) 91,49 %
30.01.2016 10:48 8,3 C 7,8 C 6,7 C 93 % 15 lf 1008,3 hPa 0,0 l/m 0 min 2 min 61 W/m 52,3 km/h (7 Bft) 93,48 %
30.01.2016 10:50 8,3 C 7,8 C 6,7 C 93 % 15 lf 1008,4 hPa 0,0 l/m 0 min 2 min 62 W/m 35,6 km/h (5 Bft) 97,87 %
30.01.2016 10:52 8,3 C 7,8 C 6,7 C 93 % 15 lf 1008,4 hPa 0,0 l/m 0 min 2 min 59 W/m 35,6 km/h (5 Bft) 95,74 %
30.01.2016 10:54 8,3 C 7,8 C 6,7 C 93 % 15 lf 1008,3 hPa 0,0 l/m 0 min 2 min 56 W/m 31,4 km/h (5 Bft) 93,62 %
30.01.2016 10:56 8,3 C 7,8 C 6,7 C 93 % 15 lf 1008,3 hPa 0,0 l/m 0 min 2 min 60 W/m 46,0 km/h (6 Bft) 97,87 %
30.01.2016 10:58 8,3 C 7,8 C 6,7 C 93 % 15 lf 1008,3 hPa 0,0 l/m 0 min 2 min 60 W/m 46,0 km/h (6 Bft) 91,49 %
30.01.2016 11:00 8,3 C 7,8 C 6,7 C 93 % 15 lf 1008,3 hPa 0,0 l/m 0 min 2 min 63 W/m 46,0 km/h (6 Bft) 97,83 %
30.01.2016 11:02 8,3 C 7,8 C 6,7 C 93 % 15 lf 1008,3 hPa 0,0 l/m 0 min 2 min 67 W/m 41,8 km/h (6 Bft) 97,87 %
30.01.2016 11:04 8,3 C 7,8 C 6,7 C 93 % 15 lf 1008,2 hPa 0,2 l/m 0 min 2 min 74 W/m 46,0 km/h (6 Bft) 97,87 %
30.01.2016 11:06 8,3 C 7,8 C 6,7 C 93 % 15 lf 1008,3 hPa 0,0 l/m 0 min 2 min 80 W/m 41,8 km/h (6 Bft) 95,74 %
30.01.2016 11:08 8,3 C 7,8 C 6,7 C 93 % 15 lf 1008,1 hPa 0,0 l/m 0 min 2 min 94 W/m 33,5 km/h (5 Bft) 97,87 %
30.01.2016 11:10 8,3 C 7,8 C 6,7 C 93 % 15 lf 1008,1 hPa 0,0 l/m 0 min 2 min 94 W/m 39,7 km/h (6 Bft) 100,00 %
30.01.2016 11:12 8,3 C 7,8 C 6,7 C 93 % 15 lf 1007,9 hPa 0,0 l/m 0 min 2 min 84 W/m 33,5 km/h (5 Bft) 97,87 %
30.01.2016 11:14 8,3 C 7,8 C 6,7 C 93 % 15 lf 1008,0 hPa 0,0 l/m 0 min 2 min 73 W/m 41,8 km/h (6 Bft) 95,74 %
30.01.2016 11:16 8,3 C 7,8 C 6,7 C 93 % 15 lf 1007,9 hPa 0,0 l/m 0 min 2 min 69 W/m 46,0 km/h (6 Bft) 97,87 %
30.01.2016 11:18 8,3 C 7,8 C 6,7 C 93 % 15 lf 1007,8 hPa 0,0 l/m 0 min 2 min 63 W/m 52,3 km/h (7 Bft) 97,87 %
30.01.2016 11:20 8,3 C 7,8 C 6,7 C 93 % 15 lf 1007,8 hPa 0,0 l/m 0 min 2 min 63 W/m 43,9 km/h (6 Bft) 95,74 %
30.01.2016 11:22 8,3 C 7,8 C 6,7 C 93 % 15 lf 1007,8 hPa 0,0 l/m 0 min 2 min 66 W/m 37,7 km/h (5 Bft) 95,65 %
30.01.2016 11:24 8,3 C 7,8 C 6,7 C 93 % 15 lf 1007,7 hPa 0,0 l/m 0 min 2 min 58 W/m 50,2 km/h (7 Bft) 97,87 %
30.01.2016 11:26 8,3 C 7,8 C 6,7 C 93 % 15 lf 1007,8 hPa 0,0 l/m 0 min 2 min 54 W/m 46,0 km/h (6 Bft) 95,74 %
30.01.2016 11:28 8,3 C 7,8 C 6,7 C 93 % 15 lf 1007,8 hPa 0,0 l/m 0 min 2 min 52 W/m 35,6 km/h (5 Bft) 95,74 %
30.01.2016 11:30 8,3 C 7,8 C 6,7 C 93 % 15 lf 1007,6 hPa 0,0 l/m 0 min 2 min 56 W/m 39,7 km/h (6 Bft) 95,74 %
30.01.2016 11:32 8,3 C 7,8 C 6,7 C 93 % 15 lf 1007,7 hPa 0,0 l/m 0 min 2 min 54 W/m 46,0 km/h (6 Bft) 97,87 %
30.01.2016 11:34 8,3 C 7,8 C 6,7 C 93 % 15 lf 1007,6 hPa 0,2 l/m 0 min 2 min 54 W/m 33,5 km/h (5 Bft) 93,48 %
30.01.2016 11:36 8,3 C 7,8 C 6,1 C 93 % 15 lf 1007,5 hPa 0,0 l/m 0 min 2 min 48 W/m 62,8 km/h (8 Bft) 95,74 %
30.01.2016 11:38 8,3 C 7,8 C 6,7 C 93 % 15 lf 1007,5 hPa 0,0 l/m 0 min 2 min 46 W/m 35,6 km/h (5 Bft) 97,87 %
30.01.2016 11:40 8,3 C 7,8 C 6,7 C 93 % 15 lf 1007,5 hPa 0,0 l/m 0 min 2 min 48 W/m 43,9 km/h (6 Bft) 97,87 %
30.01.2016 11:42 8,3 C 7,8 C 6,1 C 93 % 15 lf 1007,5 hPa 0,0 l/m 0 min 2 min 46 W/m 35,6 km/h (5 Bft) 97,87 %
30.01.2016 11:44 8,3 C 7,8 C 6,1 C 93 % 15 lf 1007,4 hPa 0,0 l/m 0 min 2 min 45 W/m 39,7 km/h (6 Bft) 95,74 %
30.01.2016 11:46 8,3 C 7,8 C 6,1 C 93 % 15 lf 1007,3 hPa 0,0 l/m 0 min 2 min 40 W/m 39,7 km/h (6 Bft) 95,65 %
30.01.2016 11:48 8,3 C 7,2 C 6,1 C 93 % 15 lf 1007,3 hPa 0,0 l/m 0 min 2 min 39 W/m 35,6 km/h (5 Bft) 97,87 %
30.01.2016 11:50 8,3 C 7,2 C 6,1 C 93 % 15 lf 1007,2 hPa 0,0 l/m 0 min 2 min 40 W/m 33,5 km/h (5 Bft) 95,74 %
30.01.2016 11:52 8,2 C 7,2 C 6,1 C 93 % 15 lf 1007,2 hPa 0,0 l/m 0 min 2 min 42 W/m 46,0 km/h (6 Bft) 97,87 %
30.01.2016 11:54 8,2 C 7,2 C 6,1 C 93 % 15 lf 1007,1 hPa 0,2 l/m 0 min 2 min 48 W/m 50,2 km/h (7 Bft) 95,74 %
30.01.2016 11:56 8,2 C 7,2 C 6,1 C 93 % 15 lf 1007,1 hPa 0,0 l/m 0 min 2 min 53 W/m 43,9 km/h (6 Bft) 97,87 %
30.01.2016 11:58 8,2 C 7,2 C 6,1 C 93 % 15 lf 1007,1 hPa 0,0 l/m 0 min 2 min 53 W/m 54,4 km/h (7 Bft) 95,65 %
30.01.2016 12:00 8,2 C 7,2 C 6,1 C 93 % 15 lf 1007,1 hPa 0,2 l/m 0 min 2 min 51 W/m 48,1 km/h (6 Bft) 97,87 %
30.01.2016 12:02 8,2 C 7,2 C 6,1 C 93 % 15 lf 1007,0 hPa 0,0 l/m 0 min 2 min 53 W/m 46,0 km/h (6 Bft) 93,62 %
30.01.2016 12:04 8,2 C 7,2 C 6,1 C 93 % 15 lf 1006,9 hPa 0,0 l/m 0 min 2 min 67 W/m 50,2 km/h (7 Bft) 93,62 %
30.01.2016 12:06 8,2 C 7,2 C 6,1 C 93 % 15 lf 1006,8 hPa 0,0 l/m 0 min 2 min 62 W/m 37,7 km/h (5 Bft) 91,49 %
30.01.2016 12:08 8,1 C 7,8 C 6,1 C 93 % 15 lf 1006,9 hPa 0,0 l/m 0 min 2 min 58 W/m 56,5 km/h (7 Bft) 95,74 %
30.01.2016 12:10 8,1 C 7,8 C 6,1 C 93 % 15 lf 1006,8 hPa 0,0 l/m 0 min 2 min 58 W/m 43,9 km/h (6 Bft) 93,48 %
30.01.2016 12:12 8,1 C 7,8 C 6,1 C 93 % 15 lf 1006,8 hPa 0,0 l/m 0 min 2 min 58 W/m 54,4 km/h (7 Bft) 93,62 %
30.01.2016 12:14 8,1 C 7,8 C 6,1 C 93 % 15 lf 1006,9 hPa 0,0 l/m 0 min 2 min 68 W/m 54,4 km/h (7 Bft) 95,74 %
30.01.2016 12:16 8,1 C 7,2 C 6,1 C 93 % 15 lf 1006,7 hPa 0,2 l/m 0 min 2 min 64 W/m 43,9 km/h (6 Bft) 93,62 %
30.01.2016 12:18 8,1 C 7,2 C 6,1 C 93 % 15 lf 1006,7 hPa 0,0 l/m 0 min 2 min 60 W/m 48,1 km/h (6 Bft) 95,74 %
30.01.2016 12:20 8,1 C 7,2 C 6,1 C 93 % 15 lf 1006,6 hPa 0,0 l/m 0 min 2 min 62 W/m 50,2 km/h (7 Bft) 93,62 %
30.01.2016 12:22 8,1 C 7,2 C 6,1 C 93 % 15 lf 1006,6 hPa 0,0 l/m 0 min 2 min 61 W/m 54,4 km/h (7 Bft) 93,48 %
30.01.2016 12:24 8,1 C 7,2 C 6,1 C 93 % 15 lf 1006,6 hPa 0,0 l/m 0 min 2 min 65 W/m 52,3 km/h (7 Bft) 91,49 %
30.01.2016 12:26 8,1 C 7,2 C 6,1 C 93 % 15 lf 1006,5 hPa 0,0 l/m 0 min 2 min 55 W/m 54,4 km/h (7 Bft) 93,62 %
30.01.2016 12:28 8,1 C 7,2 C 6,1 C 93 % 15 lf 1006,6 hPa 0,2 l/m 0 min 2 min 49 W/m 50,2 km/h (7 Bft) 91,49 %
30.01.2016 12:30 8,1 C 7,2 C 6,1 C 93 % 15 lf 1006,5 hPa 0,0 l/m 0 min 2 min 42 W/m 48,1 km/h (6 Bft) 95,74 %
30.01.2016 12:32 8,1 C 7,2 C 6,1 C 93 % 15 lf 1006,5 hPa 0,0 l/m 0 min 2 min 40 W/m 52,3 km/h (7 Bft) 95,65 %
30.01.2016 12:34 8,1 C 7,2 C 6,1 C 93 % 15 lf 1006,5 hPa 0,0 l/m 0 min 2 min 46 W/m 50,2 km/h (7 Bft) 95,74 %
30.01.2016 12:36 8,0 C 7,2 C 6,1 C 93 % 15 lf 1006,2 hPa 0,0 l/m 0 min 2 min 46 W/m 52,3 km/h (7 Bft) 93,62 %
30.01.2016 12:38 8,0 C 7,2 C 6,1 C 93 % 15 lf 1006,3 hPa 0,0 l/m 0 min 2 min 51 W/m 46,0 km/h (6 Bft) 95,74 %
30.01.2016 12:40 8,0 C 7,2 C 6,1 C 93 % 15 lf 1006,2 hPa 0,2 l/m 0 min 2 min 58 W/m 41,8 km/h (6 Bft) 91,49 %
30.01.2016 12:42 8,0 C 7,2 C 6,1 C 93 % 15 lf 1006,1 hPa 0,0 l/m 0 min 2 min 58 W/m 43,9 km/h (6 Bft) 95,74 %
30.01.2016 12:44 8,0 C 7,2 C 6,1 C 93 % 15 lf 1006,0 hPa 0,0 l/m 0 min 2 min 51 W/m 35,6 km/h (5 Bft) 95,65 %
30.01.2016 12:46 8,0 C 7,2 C 6,1 C 93 % 15 lf 1006,2 hPa 0,0 l/m 0 min 2 min 56 W/m 43,9 km/h (6 Bft) 95,74 %
30.01.2016 12:48 7,9 C 7,2 C 6,1 C 93 % 15 lf 1006,0 hPa 0,2 l/m 0 min 2 min 56 W/m 43,9 km/h (6 Bft) 97,87 %
30.01.2016 12:50 7,9 C 7,2 C 6,1 C 93 % 15 lf 1005,9 hPa 0,0 l/m 0 min 2 min 46 W/m 43,9 km/h (6 Bft) 93,62 %
30.01.2016 12:52 7,9 C 7,2 C 6,1 C 93 % 15 lf 1006,1 hPa 0,0 l/m 0 min 2 min 45 W/m 27,2 km/h (4 Bft) 95,74 %
30.01.2016 12:54 7,9 C 7,2 C 6,1 C 93 % 15 lf 1006,0 hPa 0,0 l/m 0 min 2 min 56 W/m 46,0 km/h (6 Bft) 95,74 %
30.01.2016 12:56 7,9 C 7,2 C 6,1 C 93 % 15 lf 1005,9 hPa 0,0 l/m 0 min 2 min 55 W/m 39,7 km/h (6 Bft) 95,65 %
30.01.2016 12:58 7,9 C 7,2 C 6,1 C 93 % 15 lf 1005,9 hPa 0,0 l/m 0 min 2 min 58 W/m 39,7 km/h (6 Bft) 91,49 %
30.01.2016 13:00 7,9 C 7,2 C 6,1 C 93 % 15 lf 1005,9 hPa 0,0 l/m 0 min 2 min 56 W/m 43,9 km/h (6 Bft) 95,74 %
30.01.2016 13:02 7,9 C 7,2 C 6,1 C 93 % 15 lf 1005,9 hPa 0,0 l/m 0 min 2 min 64 W/m 37,7 km/h (5 Bft) 97,87 %
30.01.2016 13:04 7,9 C 7,2 C 6,1 C 93 % 15 lf 1005,9 hPa 0,2 l/m 0 min 2 min 56 W/m 39,7 km/h (6 Bft) 97,87 %
30.01.2016 13:06 7,9 C 7,2 C 6,1 C 93 % 15 lf 1005,8 hPa 0,0 l/m 0 min 2 min 47 W/m 50,2 km/h (7 Bft) 100,00 %
30.01.2016 13:08 7,9 C 7,2 C 6,1 C 93 % 15 lf 1005,6 hPa 0,0 l/m 0 min 2 min 54 W/m 43,9 km/h (6 Bft) 93,48 %
30.01.2016 13:10 7,9 C 7,2 C 6,1 C 93 % 15 lf 1005,6 hPa 0,0 l/m 0 min 2 min 53 W/m 46,0 km/h (6 Bft) 96,43 %
30.01.2016 13:12 7,9 C 7,2 C 6,1 C 93 % 15 lf 1005,6 hPa 0,0 l/m 0 min 2 min 43 W/m 46,0 km/h (6 Bft) 97,14 %
30.01.2016 13:14 7,9 C 7,2 C 6,1 C 93 % 15 lf 1005,6 hPa 0,0 l/m 0 min 2 min 39 W/m 46,0 km/h (6 Bft) 98,08 %
30.01.2016 13:16 7,9 C 7,2 C 6,1 C 93 % 15 lf 1005,5 hPa 0,2 l/m 0 min 2 min 35 W/m 50,2 km/h (7 Bft) 93,62 %
30.01.2016 13:18 7,8 C 7,2 C 6,1 C 93 % 15 lf 1005,4 hPa 0,0 l/m 0 min 2 min 30 W/m 39,7 km/h (6 Bft) 97,87 %
30.01.2016 13:20 7,9 C 7,2 C 6,1 C 93 % 15 lf 1005,6 hPa 0,0 l/m 0 min 2 min 34 W/m 41,8 km/h (6 Bft) 97,87 %
30.01.2016 13:22 7,9 C 7,2 C 6,1 C 93 % 15 lf 1005,6 hPa 0,0 l/m 0 min 2 min 42 W/m 52,3 km/h (7 Bft) 97,87 %
30.01.2016 13:24 7,8 C 7,2 C 6,1 C 93 % 15 lf 1005,5 hPa 0,2 l/m 0 min 2 min 35 W/m 33,5 km/h (5 Bft) 97,83 %
30.01.2016 13:26 7,8 C 7,2 C 6,1 C 93 % 15 lf 1005,5 hPa 0,0 l/m 0 min 2 min 27 W/m 46,0 km/h (6 Bft) 95,74 %
30.01.2016 13:28 7,8 C 7,2 C 6,1 C 93 % 15 lf 1005,6 hPa 0,0 l/m 0 min 2 min 22 W/m 33,5 km/h (5 Bft) 93,62 %
30.01.2016 13:30 7,8 C 7,2 C 6,1 C 93 % 15 lf 1005,6 hPa 0,2 l/m 0 min 2 min 20 W/m 43,9 km/h (6 Bft) 97,87 %
30.01.2016 13:32 7,8 C 7,2 C 6,1 C 93 % 15 lf 1005,7 hPa 0,0 l/m 0 min 2 min 18 W/m 37,7 km/h (5 Bft) 93,62 %
30.01.2016 13:34 7,8 C 7,2 C 6,1 C 93 % 15 lf 1005,9 hPa 0,0 l/m 0 min 2 min 14 W/m 35,6 km/h (5 Bft) 95,74 %
30.01.2016 13:36 7,8 C 7,2 C 6,1 C 93 % 15 lf 1006,0 hPa 0,2 l/m 0 min 2 min 11 W/m 33,5 km/h (5 Bft) 97,83 %
30.01.2016 13:38 7,7 C 6,7 C 5,6 C 93 % 15 lf 1006,3 hPa 0,0 l/m 0 min 2 min 8 W/m 35,6 km/h (5 Bft) 97,87 %
30.01.2016 13:40 7,6 C 6,7 C 5,0 C 93 % 15 lf 1006,3 hPa 0,2 l/m 0 min 2 min 11 W/m 50,2 km/h (7 Bft) 97,87 %
30.01.2016 13:42 7,4 C 6,1 C 4,4 C 93 % 15 lf 1006,5 hPa 0,6 l/m 0 min 2 min 13 W/m 48,1 km/h (6 Bft) 95,74 %
30.01.2016 13:44 7,2 C 5,6 C 4,4 C 93 % 15 lf 1006,4 hPa 0,6 l/m 0 min 2 min 17 W/m 33,5 km/h (5 Bft) 97,87 %
30.01.2016 13:46 7,0 C 5,6 C 4,4 C 93 % 15 lf 1006,4 hPa 0,4 l/m 0 min 2 min 20 W/m 25,1 km/h (4 Bft) 93,62 %
30.01.2016 13:48 6,8 C 5,6 C 4,4 C 92 % 15 lf 1006,4 hPa 0,2 l/m 0 min 2 min 22 W/m 27,2 km/h (4 Bft) 91,30 %
30.01.2016 13:50 6,7 C 5,6 C 4,4 C 92 % 15 lf 1006,3 hPa 0,0 l/m 0 min 2 min 23 W/m 29,3 km/h (5 Bft) 95,74 %
30.01.2016 13:52 6,7 C 5,6 C 4,4 C 93 % 15 lf 1006,3 hPa 0,2 l/m 0 min 2 min 23 W/m 29,3 km/h (5 Bft) 95,74 %
30.01.2016 13:54 6,6 C 6,1 C 5,0 C 93 % 15 lf 1006,4 hPa 0,0 l/m 0 min 2 min 25 W/m 33,5 km/h (5 Bft) 95,74 %
30.01.2016 13:56 6,6 C 6,1 C 5,0 C 93 % 15 lf 1006,4 hPa 0,2 l/m 0 min 2 min 28 W/m 27,2 km/h (4 Bft) 91,49 %
30.01.2016 13:58 6,5 C 6,1 C 5,0 C 93 % 15 lf 1006,4 hPa 0,2 l/m 0 min 2 min 25 W/m 25,1 km/h (4 Bft) 95,65 %
30.01.2016 14:00 6,5 C 6,1 C 5,0 C 93 % 15 lf 1006,4 hPa 0,0 l/m 0 min 2 min 23 W/m 23,0 km/h (4 Bft) 95,74 %
30.01.2016 14:02 6,5 C 6,1 C 5,0 C 93 % 15 lf 1006,5 hPa 0,0 l/m 0 min 2 min 25 W/m 20,9 km/h (4 Bft) 97,87 %
30.01.2016 14:04 6,5 C 6,1 C 5,0 C 93 % 15 lf 1006,4 hPa 0,2 l/m 0 min 2 min 23 W/m 25,1 km/h (4 Bft) 95,74 %
30.01.2016 14:06 6,5 C 6,1 C 5,0 C 94 % 15 lf 1006,4 hPa 0,0 l/m 0 min 2 min 24 W/m 23,0 km/h (4 Bft) 93,62 %
30.01.2016 14:08 6,5 C 6,1 C 5,0 C 94 % 15 lf 1006,4 hPa 0,2 l/m 0 min 2 min 25 W/m 16,7 km/h (3 Bft) 95,74 %
30.01.2016 14:10 6,5 C 6,1 C 5,0 C 94 % 15 lf 1006,6 hPa 0,0 l/m 0 min 2 min 26 W/m 18,8 km/h (3 Bft) 97,83 %
30.01.2016 14:12 6,6 C 6,1 C 5,0 C 94 % 15 lf 1006,5 hPa 0,2 l/m 0 min 2 min 25 W/m 31,4 km/h (5 Bft) 93,62 %
30.01.2016 14:14 6,6 C 6,1 C 5,0 C 94 % 15 lf 1006,6 hPa 0,0 l/m 0 min 2 min 26 W/m 37,7 km/h (5 Bft) 97,87 %
30.01.2016 14:16 6,6 C 6,1 C 5,0 C 94 % 15 lf 1006,6 hPa 0,2 l/m 0 min 2 min 26 W/m 35,6 km/h (5 Bft) 97,87 %
30.01.2016 14:18 6,6 C 6,1 C 5,0 C 94 % 15 lf 1006,5 hPa 0,0 l/m 0 min 2 min 27 W/m 27,2 km/h (4 Bft) 97,87 %
30.01.2016 14:20 6,6 C 6,1 C 5,0 C 94 % 15 lf 1006,5 hPa 0,2 l/m 0 min 2 min 26 W/m 35,6 km/h (5 Bft) 97,87 %
30.01.2016 14:22 6,6 C 6,1 C 5,0 C 94 % 15 lf 1006,6 hPa 0,0 l/m 0 min 2 min 24 W/m 33,5 km/h (5 Bft) 97,83 %
30.01.2016 14:24 6,6 C 6,1 C 5,0 C 94 % 15 lf 1006,6 hPa 0,2 l/m 0 min 2 min 21 W/m 27,2 km/h (4 Bft) 97,87 %
30.01.2016 14:26 6,5 C 6,1 C 5,0 C 95 % 15 lf 1006,6 hPa 0,0 l/m 0 min 2 min 19 W/m 37,7 km/h (5 Bft) 97,87 %
30.01.2016 14:28 6,4 C 6,1 C 5,0 C 95 % 15 lf 1006,6 hPa 0,2 l/m 0 min 2 min 18 W/m 35,6 km/h (5 Bft) 97,87 %
30.01.2016 14:30 6,4 C 6,1 C 5,0 C 95 % 15 lf 1006,6 hPa 0,2 l/m 0 min 2 min 17 W/m 29,3 km/h (5 Bft) 100,00 %
30.01.2016 14:32 6,4 C 6,1 C 4,4 C 95 % 15 lf 1006,6 hPa 0,0 l/m 0 min 2 min 17 W/m 35,6 km/h (5 Bft) 97,87 %
30.01.2016 14:34 6,4 C 5,6 C 4,4 C 95 % 15 lf 1006,6 hPa 0,2 l/m 0 min 2 min 19 W/m 33,5 km/h (5 Bft) 95,65 %
30.01.2016 14:36 6,3 C 5,6 C 4,4 C 95 % 15 lf 1006,6 hPa 0,0 l/m 0 min 2 min 22 W/m 37,7 km/h (5 Bft) 97,87 %
30.01.2016 14:38 6,2 C 5,6 C 4,4 C 95 % 15 lf 1006,6 hPa 0,2 l/m 0 min 2 min 21 W/m 29,3 km/h (5 Bft) 100,00 %
30.01.2016 14:40 6,1 C 5,6 C 4,4 C 95 % 15 lf 1006,6 hPa 0,0 l/m 0 min 2 min 19 W/m 31,4 km/h (5 Bft) 97,87 %
30.01.2016 14:42 6,1 C 5,6 C 4,4 C 95 % 15 lf 1006,6 hPa 0,2 l/m 0 min 2 min 19 W/m 27,2 km/h (4 Bft) 95,74 %
30.01.2016 14:44 6,0 C 5,6 C 4,4 C 95 % 15 lf 1006,6 hPa 0,2 l/m 0 min 2 min 19 W/m 25,1 km/h (4 Bft) 100,00 %
30.01.2016 14:46 5,9 C 5,6 C 4,4 C 94 % 15 lf 1006,5 hPa 0,2 l/m 0 min 2 min 21 W/m 31,4 km/h (5 Bft) 100,00 %
30.01.2016 14:48 5,9 C 5,6 C 4,4 C 94 % 15 lf 1006,6 hPa 0,0 l/m 0 min 2 min 20 W/m 16,7 km/h (3 Bft) 95,74 %
30.01.2016 14:50 5,9 C 5,6 C 4,4 C 94 % 15 lf 1006,6 hPa 0,2 l/m 0 min 2 min 22 W/m 16,7 km/h (3 Bft) 95,74 %
30.01.2016 14:52 5,8 C 5,6 C 4,4 C 95 % 15 lf 1006,6 hPa 0,0 l/m 0 min 2 min 30 W/m 20,9 km/h (4 Bft) 100,00 %
30.01.2016 14:54 5,8 C 5,6 C 4,4 C 95 % 15 lf 1006,5 hPa 0,0 l/m 0 min 2 min 37 W/m 25,1 km/h (4 Bft) 100,00 %
30.01.2016 14:56 5,8 C 5,6 C 4,4 C 95 % 15 lf 1006,5 hPa 0,0 l/m 0 min 2 min 36 W/m 25,1 km/h (4 Bft) 100,00 %
30.01.2016 14:58 5,8 C 5,6 C 4,4 C 95 % 15 lf 1006,4 hPa 0,0 l/m 0 min 2 min 35 W/m 27,2 km/h (4 Bft) 95,65 %
30.01.2016 15:00 5,8 C 5,6 C 4,4 C 95 % 15 lf 1006,5 hPa 0,0 l/m 0 min 2 min 33 W/m 20,9 km/h (4 Bft) 97,87 %
30.01.2016 15:02 5,8 C 5,6 C 4,4 C 95 % 15 lf 1006,4 hPa 0,0 l/m 0 min 2 min 30 W/m 25,1 km/h (4 Bft) 97,87 %
30.01.2016 15:04 5,8 C 5,6 C 4,4 C 95 % 15 lf 1006,4 hPa 0,0 l/m 0 min 2 min 33 W/m 16,7 km/h (3 Bft) 97,87 %
30.01.2016 15:06 5,7 C 5,6 C 4,4 C 95 % 15 lf 1006,2 hPa 0,0 l/m 0 min 2 min 35 W/m 18,8 km/h (3 Bft) 91,49 %
30.01.2016 15:08 5,7 C 5,6 C 4,4 C 95 % 15 lf 1006,3 hPa 0,0 l/m 0 min 2 min 34 W/m 23,0 km/h (4 Bft) 95,74 %
30.01.2016 15:10 5,7 C 5,6 C 4,4 C 95 % 15 lf 1006,4 hPa 0,0 l/m 0 min 2 min 30 W/m 29,3 km/h (5 Bft) 97,83 %
30.01.2016 15:12 5,7 C 5,6 C 4,4 C 95 % 15 lf 1006,5 hPa 0,0 l/m 0 min 2 min 28 W/m 20,9 km/h (4 Bft) 95,74 %
30.01.2016 15:14 5,7 C 5,6 C 4,4 C 95 % 15 lf 1006,4 hPa 0,0 l/m 0 min 0 min 27 W/m 16,7 km/h (3 Bft) 97,87 %
30.01.2016 15:16 5,7 C 5,6 C 4,4 C 95 % 15 lf 1006,4 hPa 0,0 l/m 0 min 2 min 25 W/m 18,8 km/h (3 Bft) 97,87 %
30.01.2016 15:18 5,6 C 5,6 C 4,4 C 95 % 15 lf 1006,3 hPa 0,0 l/m 0 min 0 min 20 W/m 10,5 km/h (2 Bft) 93,62 %
30.01.2016 15:20 5,6 C 5,6 C 4,4 C 95 % 15 lf 1006,3 hPa 0,0 l/m 0 min 0 min 18 W/m 16,7 km/h (3 Bft) 97,83 %
30.01.2016 15:22 5,6 C 5,6 C 4,4 C 95 % 15 lf 1006,4 hPa 0,0 l/m 0 min 2 min 18 W/m 12,6 km/h (3 Bft) 97,87 %
30.01.2016 15:24 5,6 C 5,6 C 4,4 C 95 % 15 lf 1006,5 hPa 0,2 l/m 0 min 2 min 14 W/m 8,4 km/h (2 Bft) 93,62 %
30.01.2016 15:26 5,6 C 5,6 C 4,4 C 95 % 15 lf 1006,5 hPa 0,0 l/m 0 min 2 min 17 W/m 14,6 km/h (3 Bft) 93,62 %
30.01.2016 15:28 5,6 C 5,6 C 4,4 C 95 % 15 lf 1006,5 hPa 0,0 l/m 0 min 2 min 22 W/m 8,4 km/h (2 Bft) 93,62 %
30.01.2016 15:30 5,6 C 5,6 C 4,4 C 95 % 15 lf 1006,5 hPa 0,0 l/m 0 min 2 min 23 W/m 10,5 km/h (2 Bft) 97,87 %
30.01.2016 15:32 5,6 C 5,6 C 4,4 C 95 % 15 lf 1006,5 hPa 0,0 l/m 0 min 2 min 21 W/m 12,6 km/h (3 Bft) 93,48 %
30.01.2016 15:34 5,6 C 5,6 C 4,4 C 95 % 15 lf 1006,5 hPa 0,0 l/m 0 min 2 min 19 W/m 10,5 km/h (2 Bft) 93,62 %
30.01.2016 15:36 5,6 C 5,6 C 4,4 C 95 % 15 lf 1006,5 hPa 0,0 l/m 0 min 2 min 19 W/m 14,6 km/h (3 Bft) 93,62 %
30.01.2016 15:38 5,6 C 5,6 C 4,4 C 95 % 15 lf 1006,3 hPa 0,0 l/m 0 min 2 min 18 W/m 12,6 km/h (3 Bft) 91,49 %
30.01.2016 15:40 5,6 C 5,6 C 4,4 C 95 % 15 lf 1006,2 hPa 0,2 l/m 0 min 2 min 19 W/m 18,8 km/h (3 Bft) 95,74 %
30.01.2016 15:42 5,6 C 5,6 C 4,4 C 95 % 15 lf 1006,1 hPa 0,0 l/m 0 min 2 min 21 W/m 18,8 km/h (3 Bft) 95,74 %
30.01.2016 15:44 5,6 C 5,6 C 4,4 C 95 % 15 lf 1006,3 hPa 0,0 l/m 0 min 2 min 21 W/m 20,9 km/h (4 Bft) 97,83 %
30.01.2016 15:46 5,6 C 5,6 C 4,4 C 95 % 15 lf 1006,4 hPa 0,0 l/m 0 min 2 min 19 W/m 16,7 km/h (3 Bft) 97,87 %
30.01.2016 15:48 5,6 C 5,6 C 4,4 C 95 % 15 lf 1006,2 hPa 0,0 l/m 0 min 2 min 14 W/m 20,9 km/h (4 Bft) 93,62 %
30.01.2016 15:50 5,6 C 5,0 C 4,4 C 95 % 15 lf 1006,3 hPa 0,0 l/m 0 min 2 min 11 W/m 20,9 km/h (4 Bft) 91,49 %
30.01.2016 15:52 5,6 C 5,0 C 4,4 C 95 % 15 lf 1006,2 hPa 0,0 l/m 0 min 2 min 11 W/m 18,8 km/h (3 Bft) 97,87 %
30.01.2016 15:54 5,6 C 5,0 C 3,9 C 95 % 15 lf 1006,3 hPa 0,2 l/m 0 min 2 min 9 W/m 20,9 km/h (4 Bft) 93,62 %
30.01.2016 15:56 5,6 C 5,0 C 3,9 C 95 % 15 lf 1006,5 hPa 0,0 l/m 0 min 2 min 9 W/m 29,3 km/h (5 Bft) 95,65 %
30.01.2016 15:58 5,5 C 5,0 C 3,9 C 95 % 15 lf 1006,5 hPa 0,0 l/m 0 min 2 min 8 W/m 27,2 km/h (4 Bft) 93,62 %
30.01.2016 16:00 5,4 C 5,0 C 3,9 C 95 % 15 lf 1006,5 hPa 0,2 l/m 0 min 2 min 7 W/m 29,3 km/h (5 Bft) 95,74 %
30.01.2016 16:02 5,4 C 5,0 C 3,9 C 95 % 15 lf 1006,5 hPa 0,0 l/m 0 min 2 min 7 W/m 25,1 km/h (4 Bft) 93,62 %
30.01.2016 16:04 5,4 C 5,0 C 3,9 C 95 % 15 lf 1006,5 hPa 0,0 l/m 0 min 2 min 6 W/m 16,7 km/h (3 Bft) 93,62 %
30.01.2016 16:06 5,4 C 5,0 C 3,9 C 95 % 15 lf 1006,6 hPa 0,0 l/m 0 min 2 min 5 W/m 18,8 km/h (3 Bft) 95,74 %
30.01.2016 16:08 5,4 C 5,0 C 3,9 C 95 % 15 lf 1006,5 hPa 0,2 l/m 0 min 2 min 5 W/m 23,0 km/h (4 Bft) 93,48 %
30.01.2016 16:10 5,4 C 5,0 C 3,9 C 95 % 15 lf 1006,5 hPa 0,0 l/m 0 min 2 min 5 W/m 20,9 km/h (4 Bft) 91,49 %
30.01.2016 16:12 5,4 C 5,0 C 3,9 C 95 % 15 lf 1006,5 hPa 0,0 l/m 0 min 2 min 7 W/m 23,0 km/h (4 Bft) 91,49 %
30.01.2016 16:14 5,3 C 5,0 C 3,9 C 95 % 15 lf 1006,6 hPa 0,0 l/m 0 min 2 min 7 W/m 23,0 km/h (4 Bft) 91,49 %
30.01.2016 16:16 5,4 C 5,0 C 3,9 C 95 % 15 lf 1006,6 hPa 0,2 l/m 0 min 2 min 6 W/m 27,2 km/h (4 Bft) 95,74 %
30.01.2016 16:18 5,4 C 5,0 C 3,9 C 95 % 15 lf 1006,7 hPa 0,0 l/m 0 min 2 min 5 W/m 27,2 km/h (4 Bft) 91,30 %
30.01.2016 16:20 5,3 C 5,0 C 3,9 C 95 % 15 lf 1006,8 hPa 0,0 l/m 0 min 2 min 7 W/m 29,3 km/h (5 Bft) 95,74 %
30.01.2016 16:22 5,3 C 5,0 C 3,9 C 95 % 15 lf 1006,9 hPa 0,2 l/m 0 min 2 min 7 W/m 31,4 km/h (5 Bft) 89,36 %
30.01.2016 16:24 5,3 C 5,0 C 3,9 C 95 % 15 lf 1006,8 hPa 0,0 l/m 0 min 2 min 7 W/m 29,3 km/h (5 Bft) 95,74 %
30.01.2016 16:26 5,2 C 4,4 C 3,9 C 95 % 15 lf 1006,6 hPa 0,0 l/m 0 min 2 min 6 W/m 23,0 km/h (4 Bft) 93,62 %
30.01.2016 16:28 5,2 C 4,4 C 3,9 C 95 % 15 lf 1006,6 hPa 0,0 l/m 0 min 2 min 7 W/m 18,8 km/h (3 Bft) 93,62 %
30.01.2016 16:30 5,2 C 5,0 C 3,9 C 95 % 15 lf 1006,5 hPa 0,0 l/m 0 min 2 min 10 W/m 16,7 km/h (3 Bft) 95,65 %
30.01.2016 16:32 5,2 C 5,0 C 3,9 C 95 % 15 lf 1006,5 hPa 0,0 l/m 0 min 2 min 13 W/m 20,9 km/h (4 Bft) 97,87 %
30.01.2016 16:34 5,1 C 5,0 C 3,9 C 95 % 15 lf 1006,5 hPa 0,0 l/m 0 min 0 min 16 W/m 27,2 km/h (4 Bft) 93,62 %
30.01.2016 16:36 5,1 C 5,0 C 3,9 C 95 % 15 lf 1006,5 hPa 0,2 l/m 0 min 0 min 18 W/m 23,0 km/h (4 Bft) 97,87 %
30.01.2016 16:38 5,1 C 5,0 C 3,9 C 95 % 15 lf 1006,6 hPa 0,0 l/m 0 min 0 min 17 W/m 16,7 km/h (3 Bft) 95,74 %
30.01.2016 16:40 5,1 C 5,0 C 3,9 C 95 % 15 lf 1006,6 hPa 0,0 l/m 0 min 2 min 15 W/m 18,8 km/h (3 Bft) 95,74 %
30.01.2016 16:42 5,1 C 5,0 C 3,9 C 95 % 15 lf 1006,7 hPa 0,0 l/m 0 min 2 min 11 W/m 23,0 km/h (4 Bft) 95,65 %
30.01.2016 16:44 5,1 C 5,0 C 3,9 C 95 % 15 lf 1006,7 hPa 0,0 l/m 0 min 2 min 8 W/m 23,0 km/h (4 Bft) 97,87 %
30.01.2016 16:46 5,1 C 5,0 C 3,9 C 95 % 15 lf 1006,6 hPa 0,0 l/m 0 min 2 min 7 W/m 20,9 km/h (4 Bft) 91,49 %
30.01.2016 16:48 5,1 C 5,0 C 3,9 C 95 % 15 lf 1006,7 hPa 0,0 l/m 0 min 2 min 7 W/m 14,6 km/h (3 Bft) 95,74 %
30.01.2016 16:50 5,1 C 5,0 C 3,9 C 95 % 15 lf 1006,7 hPa 0,0 l/m 0 min 2 min 8 W/m 31,4 km/h (5 Bft) 93,62 %
30.01.2016 16:52 5,1 C 4,4 C 3,9 C 95 % 15 lf 1006,7 hPa 0,0 l/m 0 min 2 min 11 W/m 18,8 km/h (3 Bft) 95,74 %
30.01.2016 16:54 5,1 C 4,4 C 3,9 C 95 % 15 lf 1006,6 hPa 0,0 l/m 0 min 2 min 12 W/m 20,9 km/h (4 Bft) 95,65 %
30.01.2016 16:56 5,0 C 4,4 C 3,9 C 95 % 15 lf 1006,6 hPa 0,0 l/m 0 min 0 min 13 W/m 27,2 km/h (4 Bft) 95,74 %
30.01.2016 16:58 5,0 C 4,4 C 3,9 C 95 % 15 lf 1006,6 hPa 0,0 l/m 0 min 0 min 12 W/m 31,4 km/h (5 Bft) 95,74 %
30.01.2016 17:00 5,0 C 4,4 C 3,9 C 95 % 15 lf 1006,7 hPa 0,0 l/m 0 min 0 min 12 W/m 33,5 km/h (5 Bft) 95,74 %
30.01.2016 17:02 5,0 C 4,4 C 3,9 C 95 % 15 lf 1006,7 hPa 0,0 l/m 0 min 0 min 16 W/m 23,0 km/h (4 Bft) 97,87 %
30.01.2016 17:04 5,0 C 4,4 C 3,9 C 95 % 15 lf 1006,8 hPa 0,0 l/m 0 min 0 min 14 W/m 23,0 km/h (4 Bft) 100,00 %
30.01.2016 17:06 5,0 C 4,4 C 3,3 C 95 % 15 lf 1006,9 hPa 0,0 l/m 0 min 0 min 12 W/m 18,8 km/h (3 Bft) 97,83 %
30.01.2016 17:08 5,0 C 4,4 C 3,9 C 95 % 15 lf 1006,9 hPa 0,0 l/m 0 min 0 min 10 W/m 27,2 km/h (4 Bft) 100,00 %
30.01.2016 17:10 5,0 C 4,4 C 3,9 C 95 % 15 lf 1006,8 hPa 0,0 l/m 0 min 0 min 9 W/m 27,2 km/h (4 Bft) 95,74 %
30.01.2016 17:12 5,0 C 4,4 C 3,3 C 95 % 15 lf 1006,7 hPa 0,0 l/m 0 min 0 min 7 W/m 25,1 km/h (4 Bft) 93,62 %
30.01.2016 17:14 4,9 C 4,4 C 3,3 C 95 % 15 lf 1006,7 hPa 0,0 l/m 0 min 2 min 7 W/m 27,2 km/h (4 Bft) 100,00 %
30.01.2016 17:16 4,9 C 4,4 C 3,3 C 95 % 15 lf 1006,7 hPa 0,0 l/m 0 min 0 min 6 W/m 27,2 km/h (4 Bft) 97,87 %
30.01.2016 17:18 4,9 C 4,4 C 3,3 C 95 % 15 lf 1006,6 hPa 0,0 l/m 0 min 0 min 5 W/m 18,8 km/h (3 Bft) 100,00 %
30.01.2016 17:20 4,9 C 4,4 C 3,3 C 95 % 15 lf 1006,7 hPa 0,0 l/m 0 min 0 min 1 W/m 25,1 km/h (4 Bft) 100,00 %
30.01.2016 17:22 4,9 C 4,4 C 3,3 C 95 % 15 lf 1006,7 hPa 0,0 l/m 0 min 2 min 0 W/m 18,8 km/h (3 Bft) 100,00 %
30.01.2016 17:24 4,9 C 4,4 C 3,3 C 95 % 15 lf 1006,7 hPa 0,0 l/m 0 min 2 min 0 W/m 20,9 km/h (4 Bft) 97,87 %
30.01.2016 17:26 4,9 C 4,4 C 3,3 C 95 % 15 lf 1006,7 hPa 0,0 l/m 0 min 2 min 0 W/m 25,1 km/h (4 Bft) 97,87 %
30.01.2016 17:28 4,9 C 4,4 C 3,3 C 95 % 15 lf 1006,7 hPa 0,0 l/m 0 min 0 min 0 W/m 20,9 km/h (4 Bft) 95,65 %
30.01.2016 17:30 4,9 C 4,4 C 3,3 C 95 % 15 lf 1006,6 hPa 0,0 l/m 0 min 0 min 0 W/m 20,9 km/h (4 Bft) 97,87 %
30.01.2016 17:32 4,9 C 4,4 C 3,3 C 95 % 15 lf 1006,8 hPa 0,0 l/m 0 min 0 min 0 W/m 27,2 km/h (4 Bft) 100,00 %
30.01.2016 17:34 4,9 C 4,4 C 3,3 C 95 % 15 lf 1006,8 hPa 0,0 l/m 0 min 0 min 0 W/m 23,0 km/h (4 Bft) 95,74 %
30.01.2016 17:36 4,8 C 4,4 C 3,3 C 95 % 15 lf 1006,7 hPa 0,0 l/m 0 min 0 min 0 W/m 29,3 km/h (5 Bft) 93,62 %
30.01.2016 17:38 4,8 C 4,4 C 3,3 C 96 % 15 lf 1006,7 hPa 0,0 l/m 0 min 0 min 0 W/m 20,9 km/h (4 Bft) 95,74 %
30.01.2016 17:40 4,8 C 4,4 C 3,3 C 96 % 15 lf 1006,6 hPa 0,0 l/m 0 min 0 min 0 W/m 25,1 km/h (4 Bft) 95,65 %
30.01.2016 17:42 4,8 C 4,4 C 3,3 C 96 % 15 lf 1006,6 hPa 0,0 l/m 0 min 0 min 0 W/m 16,7 km/h (3 Bft) 91,49 %
30.01.2016 17:44 4,8 C 4,4 C 3,3 C 96 % 15 lf 1006,6 hPa 0,0 l/m 0 min 0 min 0 W/m 25,1 km/h (4 Bft) 93,62 %
30.01.2016 17:46 4,8 C 4,4 C 3,3 C 96 % 15 lf 1006,6 hPa 0,0 l/m 0 min 0 min 0 W/m 16,7 km/h (3 Bft) 95,74 %
30.01.2016 17:48 4,8 C 4,4 C 3,3 C 96 % 15 lf 1006,7 hPa 0,0 l/m 0 min 0 min 0 W/m 16,7 km/h (3 Bft) 97,87 %
30.01.2016 17:50 4,8 C 4,4 C 3,3 C 96 % 15 lf 1006,7 hPa 0,0 l/m 0 min 0 min 0 W/m 18,8 km/h (3 Bft) 93,62 %
30.01.2016 17:52 4,8 C 4,4 C 3,3 C 96 % 15 lf 1006,7 hPa 0,0 l/m 0 min 0 min 0 W/m 16,7 km/h (3 Bft) 95,65 %
30.01.2016 17:54 4,8 C 4,4 C 3,3 C 96 % 15 lf 1006,8 hPa 0,0 l/m 0 min 0 min 0 W/m 18,8 km/h (3 Bft) 95,74 %
30.01.2016 17:56 4,8 C 4,4 C 3,3 C 96 % 15 lf 1006,9 hPa 0,0 l/m 0 min 0 min 0 W/m 20,9 km/h (4 Bft) 95,74 %
30.01.2016 17:58 4,8 C 4,4 C 3,3 C 96 % 15 lf 1007,1 hPa 0,0 l/m 0 min 2 min 0 W/m 25,1 km/h (4 Bft) 95,74 %
30.01.2016 18:00 4,8 C 4,4 C 3,3 C 96 % 15 lf 1007,1 hPa 0,0 l/m 0 min 2 min 0 W/m 20,9 km/h (4 Bft) 95,74 %
30.01.2016 18:02 4,8 C 4,4 C 3,3 C 96 % 15 lf 1007,1 hPa 0,0 l/m 0 min 2 min 0 W/m 18,8 km/h (3 Bft) 95,74 %
30.01.2016 18:04 4,8 C 4,4 C 3,3 C 96 % 15 lf 1007,0 hPa 0,0 l/m 0 min 2 min 0 W/m 23,0 km/h (4 Bft) 95,65 %
30.01.2016 18:06 4,8 C 4,4 C 3,3 C 96 % 15 lf 1007,2 hPa 0,0 l/m 0 min 2 min 0 W/m 23,0 km/h (4 Bft) 97,87 %
30.01.2016 18:08 4,8 C 4,4 C 3,3 C 96 % 15 lf 1007,1 hPa 0,0 l/m 0 min 2 min 0 W/m 16,7 km/h (3 Bft) 95,74 %
30.01.2016 18:10 4,8 C 4,4 C 3,3 C 96 % 15 lf 1007,0 hPa 0,0 l/m 0 min 2 min 0 W/m 20,9 km/h (4 Bft) 95,74 %
30.01.2016 18:12 4,8 C 4,4 C 3,3 C 96 % 15 lf 1006,9 hPa 0,0 l/m 0 min 2 min 0 W/m 14,6 km/h (3 Bft) 97,87 %
30.01.2016 18:14 4,8 C 4,4 C 3,3 C 96 % 15 lf 1006,9 hPa 0,0 l/m 0 min 2 min 0 W/m 16,7 km/h (3 Bft) 97,87 %
30.01.2016 18:16 4,8 C 4,4 C 3,3 C 96 % 15 lf 1007,0 hPa 0,0 l/m 0 min 2 min 0 W/m 20,9 km/h (4 Bft) 97,83 %
30.01.2016 18:18 4,8 C 4,4 C 3,3 C 96 % 15 lf 1007,0 hPa 0,0 l/m 0 min 2 min 0 W/m 25,1 km/h (4 Bft) 100,00 %
30.01.2016 18:20 4,8 C 4,4 C 3,3 C 96 % 15 lf 1007,0 hPa 0,0 l/m 0 min 0 min 0 W/m 23,0 km/h (4 Bft) 97,87 %
30.01.2016 18:22 4,8 C 4,4 C 3,3 C 95 % 15 lf 1007,1 hPa 0,0 l/m 0 min 2 min 0 W/m 31,4 km/h (5 Bft) 93,62 %
30.01.2016 18:24 4,8 C 4,4 C 3,3 C 95 % 15 lf 1007,1 hPa 0,0 l/m 0 min 0 min 0 W/m 31,4 km/h (5 Bft) 100,00 %
30.01.2016 18:26 4,7 C 4,4 C 3,3 C 95 % 15 lf 1007,1 hPa 0,0 l/m 0 min 0 min 0 W/m 31,4 km/h (5 Bft) 97,87 %
30.01.2016 18:28 4,7 C 4,4 C 3,3 C 95 % 15 lf 1007,2 hPa 0,0 l/m 0 min 0 min 0 W/m 27,2 km/h (4 Bft) 100,00 %
30.01.2016 18:30 4,7 C 4,4 C 3,3 C 95 % 15 lf 1007,2 hPa 0,0 l/m 0 min 0 min 0 W/m 27,2 km/h (4 Bft) 97,87 %
30.01.2016 18:32 4,7 C 4,4 C 3,3 C 95 % 15 lf 1007,3 hPa 0,2 l/m 0 min 0 min 0 W/m 35,6 km/h (5 Bft) 100,00 %
30.01.2016 18:34 4,7 C 4,4 C 3,3 C 95 % 15 lf 1007,3 hPa 0,0 l/m 0 min 0 min 0 W/m 29,3 km/h (5 Bft) 97,87 %
30.01.2016 18:36 4,7 C 4,4 C 3,3 C 95 % 15 lf 1007,4 hPa 0,0 l/m 0 min 0 min 0 W/m 23,0 km/h (4 Bft) 97,87 %
30.01.2016 18:38 4,7 C 4,4 C 3,3 C 95 % 15 lf 1007,5 hPa 0,0 l/m 0 min 2 min 0 W/m 29,3 km/h (5 Bft) 97,87 %
30.01.2016 18:40 4,7 C 4,4 C 3,3 C 95 % 15 lf 1007,6 hPa 0,0 l/m 0 min 2 min 0 W/m 20,9 km/h (4 Bft) 100,00 %
30.01.2016 18:42 4,7 C 4,4 C 3,3 C 95 % 15 lf 1007,7 hPa 0,0 l/m 0 min 0 min 0 W/m 23,0 km/h (4 Bft) 100,00 %
30.01.2016 18:44 4,8 C 4,4 C 3,3 C 95 % 15 lf 1007,6 hPa 0,0 l/m 0 min 0 min 0 W/m 23,0 km/h (4 Bft) 100,00 %
30.01.2016 18:46 4,8 C 4,4 C 3,3 C 95 % 15 lf 1007,7 hPa 0,0 l/m 0 min 0 min 0 W/m 25,1 km/h (4 Bft) 97,87 %
30.01.2016 18:48 4,8 C 4,4 C 3,3 C 95 % 15 lf 1007,6 hPa 0,0 l/m 0 min 2 min 0 W/m 25,1 km/h (4 Bft) 100,00 %
30.01.2016 18:50 4,8 C 4,4 C 3,3 C 95 % 15 lf 1007,7 hPa 0,0 l/m 0 min 0 min 0 W/m 23,0 km/h (4 Bft) 100,00 %
30.01.2016 18:52 4,7 C 4,4 C 3,3 C 95 % 15 lf 1007,8 hPa 0,0 l/m 0 min 0 min 0 W/m 29,3 km/h (5 Bft) 97,87 %
30.01.2016 18:54 4,8 C 4,4 C 3,3 C 95 % 15 lf 1007,7 hPa 0,0 l/m 0 min 0 min 0 W/m 20,9 km/h (4 Bft) 95,74 %
30.01.2016 18:56 4,8 C 4,4 C 3,3 C 95 % 15 lf 1007,7 hPa 0,0 l/m 0 min 0 min 0 W/m 20,9 km/h (4 Bft) 97,92 %
30.01.2016 18:58 4,7 C 4,4 C 3,3 C 95 % 15 lf 1007,6 hPa 0,0 l/m 0 min 0 min 0 W/m 16,7 km/h (3 Bft) 100,00 %
30.01.2016 19:00 4,7 C 4,4 C 3,3 C 95 % 15 lf 1007,7 hPa 0,0 l/m 0 min 0 min 0 W/m 18,8 km/h (3 Bft) 100,00 %
30.01.2016 19:02 4,7 C 4,4 C 3,3 C 95 % 15 lf 1007,7 hPa 0,0 l/m 0 min 0 min 0 W/m 18,8 km/h (3 Bft) 98,00 %
30.01.2016 19:04 4,7 C 3,9 C 2,8 C 95 % 15 lf 1007,8 hPa 0,0 l/m 0 min 0 min 0 W/m 14,6 km/h (3 Bft) 100,00 %
30.01.2016 19:06 4,7 C 3,9 C 2,8 C 95 % 15 lf 1007,9 hPa 0,0 l/m 0 min 0 min 0 W/m 18,8 km/h (3 Bft) 97,92 %
30.01.2016 19:08 4,7 C 3,9 C 2,8 C 95 % 15 lf 1007,9 hPa 0,0 l/m 0 min 0 min 0 W/m 23,0 km/h (4 Bft) 100,00 %
30.01.2016 19:10 4,6 C 3,9 C 2,8 C 95 % 15 lf 1008,0 hPa 0,0 l/m 0 min 0 min 0 W/m 18,8 km/h (3 Bft) 95,74 %
30.01.2016 19:12 4,6 C 3,9 C 2,8 C 95 % 15 lf 1008,0 hPa 0,0 l/m 0 min 0 min 0 W/m 16,7 km/h (3 Bft) 95,74 %
30.01.2016 19:14 4,6 C 3,9 C 2,8 C 95 % 15 lf 1008,1 hPa 0,0 l/m 0 min 0 min 0 W/m 23,0 km/h (4 Bft) 97,83 %
30.01.2016 19:16 4,6 C 3,9 C 2,8 C 95 % 15 lf 1008,1 hPa 0,0 l/m 0 min 0 min 0 W/m 23,0 km/h (4 Bft) 95,74 %
30.01.2016 19:18 4,5 C 3,9 C 2,8 C 95 % 15 lf 1008,1 hPa 0,0 l/m 0 min 0 min 0 W/m 20,9 km/h (4 Bft) 97,87 %
30.01.2016 19:20 4,5 C 3,9 C 2,8 C 95 % 15 lf 1008,2 hPa 0,0 l/m 0 min 0 min 0 W/m 16,7 km/h (3 Bft) 97,87 %
30.01.2016 19:22 4,4 C 3,9 C 2,8 C 95 % 15 lf 1008,3 hPa 0,0 l/m 0 min 0 min 0 W/m 18,8 km/h (3 Bft) 93,62 %
30.01.2016 19:24 4,4 C 3,9 C 2,8 C 95 % 15 lf 1008,4 hPa 0,0 l/m 0 min 0 min 0 W/m 16,7 km/h (3 Bft) 91,49 %
30.01.2016 19:26 4,4 C 3,9 C 2,8 C 95 % 15 lf 1008,3 hPa 0,0 l/m 0 min 0 min 0 W/m 14,6 km/h (3 Bft) 95,65 %
30.01.2016 19:28 4,4 C 3,9 C 2,8 C 95 % 15 lf 1008,2 hPa 0,0 l/m 0 min 0 min 0 W/m 18,8 km/h (3 Bft) 93,62 %
30.01.2016 19:30 4,4 C 3,9 C 2,8 C 95 % 15 lf 1008,3 hPa 0,0 l/m 0 min 0 min 0 W/m 16,7 km/h (3 Bft) 95,74 %
30.01.2016 19:32 4,4 C 3,9 C 2,8 C 95 % 15 lf 1008,4 hPa 0,0 l/m 0 min 0 min 0 W/m 18,8 km/h (3 Bft) 95,74 %
30.01.2016 19:34 4,3 C 3,9 C 2,8 C 95 % 15 lf 1008,4 hPa 0,0 l/m 0 min 0 min 0 W/m 12,6 km/h (3 Bft) 93,62 %
30.01.2016 19:36 4,3 C 3,9 C 2,8 C 95 % 15 lf 1008,4 hPa 0,0 l/m 0 min 0 min 0 W/m 16,7 km/h (3 Bft) 89,36 %
30.01.2016 19:38 4,3 C 3,9 C 2,8 C 95 % 15 lf 1008,4 hPa 0,0 l/m 0 min 0 min 0 W/m 18,8 km/h (3 Bft) 89,13 %
30.01.2016 19:40 4,3 C 3,9 C 2,8 C 95 % 15 lf 1008,5 hPa 0,0 l/m 0 min 0 min 0 W/m 20,9 km/h (4 Bft) 93,62 %
30.01.2016 19:42 4,3 C 3,9 C 2,8 C 95 % 15 lf 1008,5 hPa 0,0 l/m 0 min 0 min 0 W/m 23,0 km/h (4 Bft) 91,49 %
30.01.2016 19:44 4,3 C 3,9 C 2,8 C 95 % 15 lf 1008,5 hPa 0,0 l/m 0 min 0 min 0 W/m 18,8 km/h (3 Bft) 93,62 %
30.01.2016 19:46 4,3 C 3,9 C 2,8 C 95 % 15 lf 1008,5 hPa 0,0 l/m 0 min 0 min 0 W/m 16,7 km/h (3 Bft) 91,49 %
30.01.2016 19:48 4,3 C 3,9 C 2,8 C 95 % 15 lf 1008,5 hPa 0,0 l/m 0 min 0 min 0 W/m 20,9 km/h (4 Bft) 93,62 %
30.01.2016 19:50 4,3 C 3,9 C 2,8 C 95 % 15 lf 1008,6 hPa 0,0 l/m 0 min 0 min 0 W/m 25,1 km/h (4 Bft) 93,48 %
30.01.2016 19:52 4,3 C 3,9 C 2,8 C 95 % 15 lf 1008,6 hPa 0,0 l/m 0 min 0 min 0 W/m 18,8 km/h (3 Bft) 95,74 %
30.01.2016 19:54 4,3 C 3,9 C 2,8 C 95 % 15 lf 1008,6 hPa 0,0 l/m 0 min 0 min 0 W/m 27,2 km/h (4 Bft) 93,62 %
30.01.2016 19:56 4,2 C 3,9 C 2,2 C 95 % 15 lf 1008,6 hPa 0,0 l/m 0 min 0 min 0 W/m 20,9 km/h (4 Bft) 93,62 %
30.01.2016 19:58 4,2 C 3,9 C 2,2 C 95 % 15 lf 1008,6 hPa 0,0 l/m 0 min 0 min 0 W/m 25,1 km/h (4 Bft) 95,74 %
30.01.2016 20:00 4,2 C 3,9 C 2,2 C 95 % 15 lf 1008,6 hPa 0,0 l/m 0 min 0 min 0 W/m 27,2 km/h (4 Bft) 95,74 %
30.01.2016 20:02 4,2 C 3,9 C 2,2 C 95 % 15 lf 1008,6 hPa 0,0 l/m 0 min 0 min 0 W/m 27,2 km/h (4 Bft) 89,13 %
30.01.2016 20:04 4,2 C 3,9 C 2,2 C 95 % 15 lf 1008,7 hPa 0,0 l/m 0 min 0 min 0 W/m 25,1 km/h (4 Bft) 95,74 %
30.01.2016 20:06 4,2 C 3,9 C 2,2 C 95 % 15 lf 1008,7 hPa 0,0 l/m 0 min 0 min 0 W/m 23,0 km/h (4 Bft) 97,87 %
30.01.2016 20:08 4,2 C 3,9 C 2,2 C 95 % 15 lf 1008,7 hPa 0,0 l/m 0 min 0 min 0 W/m 20,9 km/h (4 Bft) 93,62 %
30.01.2016 20:10 4,1 C 3,9 C 2,2 C 95 % 15 lf 1008,7 hPa 0,0 l/m 0 min 0 min 0 W/m 18,8 km/h (3 Bft) 95,74 %
30.01.2016 20:12 4,1 C 3,9 C 2,2 C 95 % 15 lf 1008,7 hPa 0,0 l/m 0 min 0 min 0 W/m 23,0 km/h (4 Bft) 93,48 %
30.01.2016 20:14 4,1 C 3,9 C 2,2 C 95 % 15 lf 1008,7 hPa 0,0 l/m 0 min 0 min 0 W/m 25,1 km/h (4 Bft) 95,74 %
30.01.2016 20:16 4,1 C 3,9 C 2,2 C 95 % 15 lf 1008,7 hPa 0,0 l/m 0 min 0 min 0 W/m 18,8 km/h (3 Bft) 95,74 %
30.01.2016 20:18 4,1 C 3,3 C 2,2 C 95 % 15 lf 1008,7 hPa 0,0 l/m 0 min 0 min 0 W/m 18,8 km/h (3 Bft) 95,74 %
30.01.2016 20:20 4,1 C 3,9 C 2,2 C 95 % 15 lf 1008,8 hPa 0,0 l/m 0 min 0 min 0 W/m 25,1 km/h (4 Bft) 93,62 %
30.01.2016 20:22 4,1 C 3,3 C 2,2 C 95 % 15 lf 1008,8 hPa 0,0 l/m 0 min 0 min 0 W/m 18,8 km/h (3 Bft) 97,87 %
30.01.2016 20:24 4,0 C 3,3 C 2,2 C 95 % 15 lf 1008,9 hPa 0,0 l/m 0 min 0 min 0 W/m 20,9 km/h (4 Bft) 93,48 %
30.01.2016 20:26 4,0 C 3,3 C 2,2 C 95 % 15 lf 1008,9 hPa 0,0 l/m 0 min 0 min 0 W/m 18,8 km/h (3 Bft) 95,74 %
30.01.2016 20:28 4,0 C 3,9 C 2,2 C 95 % 15 lf 1008,9 hPa 0,0 l/m 0 min 0 min 0 W/m 20,9 km/h (4 Bft) 93,62 %
30.01.2016 20:30 4,0 C 3,9 C 2,2 C 95 % 15 lf 1008,9 hPa 0,0 l/m 0 min 0 min 0 W/m 20,9 km/h (4 Bft) 95,74 %
30.01.2016 20:32 3,9 C 3,3 C 2,2 C 95 % 15 lf 1008,9 hPa 0,0 l/m 0 min 0 min 0 W/m 18,8 km/h (3 Bft) 89,36 %
30.01.2016 20:34 3,9 C 3,3 C 2,2 C 95 % 15 lf 1008,9 hPa 0,0 l/m 0 min 0 min 0 W/m 27,2 km/h (4 Bft) 95,74 %
30.01.2016 20:36 3,9 C 3,3 C 2,2 C 95 % 15 lf 1008,9 hPa 0,0 l/m 0 min 0 min 0 W/m 27,2 km/h (4 Bft) 93,48 %
30.01.2016 20:38 3,9 C 3,3 C 2,2 C 95 % 15 lf 1008,9 hPa 0,0 l/m 0 min 0 min 0 W/m 25,1 km/h (4 Bft) 95,74 %
30.01.2016 20:40 3,9 C 3,3 C 2,2 C 95 % 15 lf 1008,9 hPa 0,0 l/m 0 min 0 min 0 W/m 23,0 km/h (4 Bft) 95,74 %
30.01.2016 20:42 3,8 C 3,3 C 2,2 C 95 % 15 lf 1008,9 hPa 0,0 l/m 0 min 0 min 0 W/m 23,0 km/h (4 Bft) 93,62 %
30.01.2016 20:44 3,8 C 3,3 C 2,2 C 95 % 15 lf 1008,9 hPa 0,0 l/m 0 min 0 min 0 W/m 23,0 km/h (4 Bft) 97,87 %
30.01.2016 20:46 3,8 C 3,3 C 2,2 C 95 % 15 lf 1009,0 hPa 0,0 l/m 0 min 0 min 0 W/m 27,2 km/h (4 Bft) 97,87 %
30.01.2016 20:48 3,7 C 3,3 C 2,2 C 95 % 15 lf 1009,0 hPa 0,0 l/m 0 min 2 min 0 W/m 23,0 km/h (4 Bft) 100,00 %
30.01.2016 20:50 3,7 C 3,3 C 1,7 C 95 % 15 lf 1009,0 hPa 0,0 l/m 0 min 0 min 0 W/m 20,9 km/h (4 Bft) 97,87 %
30.01.2016 20:52 3,7 C 3,3 C 1,7 C 95 % 15 lf 1009,0 hPa 0,0 l/m 0 min 0 min 0 W/m 20,9 km/h (4 Bft) 97,87 %
30.01.2016 20:54 3,6 C 3,3 C 1,7 C 95 % 15 lf 1009,0 hPa 0,0 l/m 0 min 0 min 0 W/m 18,8 km/h (3 Bft) 93,62 %
30.01.2016 20:56 3,6 C 3,3 C 1,7 C 95 % 15 lf 1009,0 hPa 0,0 l/m 0 min 0 min 0 W/m 27,2 km/h (4 Bft) 100,00 %
30.01.2016 20:58 3,6 C 3,3 C 1,7 C 95 % 15 lf 1009,1 hPa 0,0 l/m 0 min 0 min 0 W/m 23,0 km/h (4 Bft) 97,87 %
30.01.2016 21:00 3,5 C 2,8 C 1,7 C 95 % 15 lf 1009,1 hPa 0,0 l/m 0 min 0 min 0 W/m 20,9 km/h (4 Bft) 95,65 %
30.01.2016 21:02 3,5 C 2,8 C 1,7 C 95 % 15 lf 1009,2 hPa 0,0 l/m 0 min 0 min 0 W/m 25,1 km/h (4 Bft) 97,87 %
30.01.2016 21:04 3,4 C 2,8 C 1,7 C 95 % 15 lf 1009,1 hPa 0,0 l/m 0 min 0 min 0 W/m 18,8 km/h (3 Bft) 97,87 %
30.01.2016 21:06 3,4 C 2,8 C 1,7 C 95 % 15 lf 1009,1 hPa 0,0 l/m 0 min 0 min 0 W/m 25,1 km/h (4 Bft) 97,87 %
30.01.2016 21:08 3,4 C 2,8 C 1,7 C 95 % 15 lf 1009,2 hPa 0,0 l/m 0 min 2 min 0 W/m 18,8 km/h (3 Bft) 97,87 %
30.01.2016 21:10 3,3 C 2,8 C 1,7 C 95 % 15 lf 1009,2 hPa 0,0 l/m 0 min 0 min 0 W/m 23,0 km/h (4 Bft) 95,74 %
30.01.2016 21:12 3,3 C 2,8 C 1,7 C 95 % 15 lf 1009,1 hPa 0,0 l/m 0 min 0 min 0 W/m 20,9 km/h (4 Bft) 97,83 %
30.01.2016 21:14 3,3 C 2,8 C 1,7 C 95 % 15 lf 1009,1 hPa 0,0 l/m 0 min 0 min 0 W/m 25,1 km/h (4 Bft) 95,74 %
30.01.2016 21:16 3,3 C 2,8 C 1,7 C 95 % 15 lf 1009,2 hPa 0,0 l/m 0 min 0 min 0 W/m 29,3 km/h (5 Bft) 97,87 %
30.01.2016 21:18 3,2 C 2,8 C 1,7 C 95 % 15 lf 1009,2 hPa 0,0 l/m 0 min 0 min 0 W/m 27,2 km/h (4 Bft) 97,87 %
30.01.2016 21:20 3,2 C 2,8 C 1,7 C 95 % 15 lf 1009,2 hPa 0,0 l/m 0 min 0 min 0 W/m 31,4 km/h (5 Bft) 97,87 %
30.01.2016 21:22 3,2 C 2,8 C 1,7 C 95 % 15 lf 1009,1 hPa 0,0 l/m 0 min 0 min 0 W/m 35,6 km/h (5 Bft) 97,83 %
30.01.2016 21:24 3,2 C 2,8 C 1,7 C 95 % 15 lf 1009,2 hPa 0,0 l/m 0 min 0 min 0 W/m 23,0 km/h (4 Bft) 97,87 %
30.01.2016 21:26 3,2 C 2,8 C 1,7 C 95 % 15 lf 1009,2 hPa 0,0 l/m 0 min 0 min 0 W/m 29,3 km/h (5 Bft) 95,74 %
30.01.2016 21:28 3,2 C 2,8 C 1,7 C 95 % 15 lf 1009,2 hPa 0,0 l/m 0 min 0 min 0 W/m 27,2 km/h (4 Bft) 95,74 %
30.01.2016 21:30 3,1 C 2,8 C 1,7 C 95 % 15 lf 1009,3 hPa 0,0 l/m 0 min 0 min 0 W/m 29,3 km/h (5 Bft) 95,74 %
30.01.2016 21:32 3,1 C 2,8 C 1,7 C 94 % 15 lf 1009,3 hPa 0,0 l/m 0 min 0 min 0 W/m 23,0 km/h (4 Bft) 95,74 %
30.01.2016 21:34 3,1 C 2,8 C 1,1 C 94 % 15 lf 1009,4 hPa 0,0 l/m 0 min 0 min 0 W/m 23,0 km/h (4 Bft) 95,65 %
30.01.2016 21:36 3,1 C 2,8 C 1,1 C 94 % 15 lf 1009,4 hPa 0,0 l/m 0 min 0 min 0 W/m 25,1 km/h (4 Bft) 97,87 %
30.01.2016 21:38 3,0 C 2,8 C 1,1 C 94 % 15 lf 1009,6 hPa 0,0 l/m 0 min 0 min 0 W/m 23,0 km/h (4 Bft) 100,00 %
30.01.2016 21:40 3,0 C 2,8 C 1,1 C 94 % 15 lf 1009,6 hPa 0,0 l/m 0 min 0 min 0 W/m 33,5 km/h (5 Bft) 97,87 %
30.01.2016 21:42 3,0 C 2,8 C 1,1 C 94 % 15 lf 1009,5 hPa 0,0 l/m 0 min 0 min 0 W/m 23,0 km/h (4 Bft) 97,87 %
30.01.2016 21:44 3,0 C 2,8 C 1,1 C 94 % 15 lf 1009,6 hPa 0,0 l/m 0 min 0 min 0 W/m 25,1 km/h (4 Bft) 97,87 %
30.01.2016 21:46 2,9 C 2,8 C 1,1 C 94 % 15 lf 1009,5 hPa 0,0 l/m 0 min 0 min 0 W/m 25,1 km/h (4 Bft) 100,00 %
30.01.2016 21:48 2,9 C 2,8 C 1,1 C 94 % 14 lf 1009,6 hPa 0,0 l/m 0 min 0 min 0 W/m 25,1 km/h (4 Bft) 100,00 %
30.01.2016 21:50 2,9 C 2,2 C 1,1 C 94 % 14 lf 1009,6 hPa 0,0 l/m 0 min 0 min 0 W/m 20,9 km/h (4 Bft) 100,00 %
30.01.2016 21:52 2,9 C 2,2 C 1,1 C 94 % 15 lf 1009,7 hPa 0,0 l/m 0 min 0 min 0 W/m 20,9 km/h (4 Bft) 100,00 %
30.01.2016 21:54 2,9 C 2,2 C 1,1 C 94 % 14 lf 1009,6 hPa 0,0 l/m 0 min 0 min 0 W/m 25,1 km/h (4 Bft) 100,00 %
30.01.2016 21:56 2,9 C 2,2 C 1,1 C 94 % 15 lf 1009,6 hPa 0,0 l/m 0 min 0 min 0 W/m 23,0 km/h (4 Bft) 95,74 %
30.01.2016 21:58 2,9 C 2,2 C 1,1 C 94 % 14 lf 1009,6 hPa 0,0 l/m 0 min 0 min 0 W/m 18,8 km/h (3 Bft) 97,83 %
30.01.2016 22:00 2,8 C 2,2 C 1,1 C 94 % 14 lf 1009,7 hPa 0,0 l/m 0 min 0 min 0 W/m 20,9 km/h (4 Bft) 97,87 %
30.01.2016 22:02 2,8 C 2,2 C 1,1 C 94 % 14 lf 1009,7 hPa 0,0 l/m 0 min 0 min 0 W/m 20,9 km/h (4 Bft) 91,49 %
30.01.2016 22:04 2,8 C 2,2 C 1,1 C 94 % 14 lf 1009,7 hPa 0,0 l/m 0 min 0 min 0 W/m 27,2 km/h (4 Bft) 100,00 %
30.01.2016 22:06 2,8 C 2,2 C 1,1 C 94 % 14 lf 1009,7 hPa 0,0 l/m 0 min 0 min 0 W/m 25,1 km/h (4 Bft) 100,00 %
30.01.2016 22:08 2,8 C 2,2 C 1,1 C 94 % 14 lf 1009,6 hPa 0,0 l/m 0 min 0 min 0 W/m 23,0 km/h (4 Bft) 100,00 %
30.01.2016 22:10 2,8 C 2,2 C 1,1 C 94 % 14 lf 1009,6 hPa 0,0 l/m 0 min 0 min 0 W/m 23,0 km/h (4 Bft) 97,83 %
30.01.2016 22:12 2,8 C 2,2 C 1,1 C 94 % 14 lf 1009,6 hPa 0,0 l/m 0 min 0 min 0 W/m 35,6 km/h (5 Bft) 95,74 %
30.01.2016 22:14 2,8 C 2,2 C 1,1 C 94 % 14 lf 1009,6 hPa 0,0 l/m 0 min 0 min 0 W/m 27,2 km/h (4 Bft) 100,00 %
30.01.2016 22:16 2,7 C 2,2 C 1,1 C 94 % 13 lf 1009,7 hPa 0,0 l/m 0 min 0 min 0 W/m 23,0 km/h (4 Bft) 97,87 %
30.01.2016 22:18 2,7 C 2,2 C 1,1 C 94 % 13 lf 1009,7 hPa 0,0 l/m 0 min 0 min 0 W/m 25,1 km/h (4 Bft) 97,87 %
30.01.2016 22:20 2,7 C 2,2 C 1,1 C 94 % 13 lf 1009,7 hPa 0,0 l/m 0 min 0 min 0 W/m 23,0 km/h (4 Bft) 95,74 %
30.01.2016 22:22 2,7 C 2,2 C 1,1 C 94 % 13 lf 1009,8 hPa 0,0 l/m 0 min 0 min 0 W/m 25,1 km/h (4 Bft) 97,83 %
30.01.2016 22:24 2,7 C 2,2 C 1,1 C 94 % 13 lf 1009,7 hPa 0,0 l/m 0 min 0 min 0 W/m 20,9 km/h (4 Bft) 97,87 %
30.01.2016 22:26 2,7 C 2,2 C 1,1 C 94 % 12 lf 1009,7 hPa 0,0 l/m 0 min 0 min 0 W/m 18,8 km/h (3 Bft) 97,87 %
30.01.2016 22:28 2,7 C 2,2 C 1,1 C 94 % 12 lf 1009,8 hPa 0,0 l/m 0 min 0 min 0 W/m 27,2 km/h (4 Bft) 95,74 %
30.01.2016 22:30 2,7 C 2,2 C 1,1 C 94 % 12 lf 1009,7 hPa 0,0 l/m 0 min 0 min 0 W/m 25,1 km/h (4 Bft) 89,36 %
30.01.2016 22:32 2,7 C 2,2 C 1,1 C 93 % 12 lf 1009,7 hPa 0,0 l/m 0 min 0 min 0 W/m 27,2 km/h (4 Bft) 95,65 %
30.01.2016 22:34 2,7 C 2,2 C 1,1 C 93 % 11 lf 1009,7 hPa 0,0 l/m 0 min 0 min 0 W/m 23,0 km/h (4 Bft) 95,74 %
30.01.2016 22:36 2,7 C 2,2 C 1,1 C 93 % 11 lf 1009,8 hPa 0,0 l/m 0 min 0 min 0 W/m 23,0 km/h (4 Bft) 95,74 %
30.01.2016 22:38 2,7 C 2,2 C 1,1 C 93 % 11 lf 1009,9 hPa 0,0 l/m 0 min 0 min 0 W/m 25,1 km/h (4 Bft) 95,74 %
30.01.2016 22:40 2,7 C 2,2 C 1,1 C 93 % 10 lf 1009,9 hPa 0,0 l/m 0 min 0 min 0 W/m 23,0 km/h (4 Bft) 95,74 %
30.01.2016 22:42 2,7 C 2,2 C 1,1 C 93 % 9 lf 1009,8 hPa 0,0 l/m 0 min 0 min 0 W/m 23,0 km/h (4 Bft) 95,74 %
30.01.2016 22:44 2,7 C 2,2 C 1,1 C 93 % 9 lf 1009,9 hPa 0,0 l/m 0 min 0 min 0 W/m 25,1 km/h (4 Bft) 93,48 %
30.01.2016 22:46 2,7 C 2,2 C 1,1 C 93 % 9 lf 1009,8 hPa 0,0 l/m 0 min 0 min 0 W/m 18,8 km/h (3 Bft) 93,62 %
30.01.2016 22:48 2,7 C 2,2 C 1,1 C 93 % 8 lf 1009,9 hPa 0,0 l/m 0 min 0 min 0 W/m 18,8 km/h (3 Bft) 95,74 %
30.01.2016 22:50 2,7 C 2,2 C 1,1 C 93 % 7 lf 1009,9 hPa 0,0 l/m 0 min 0 min 0 W/m 23,0 km/h (4 Bft) 93,62 %
30.01.2016 22:52 2,7 C 2,8 C 1,1 C 93 % 6 lf 1009,9 hPa 0,0 l/m 0 min 0 min 0 W/m 20,9 km/h (4 Bft) 95,74 %
30.01.2016 22:54 2,7 C 2,8 C 1,1 C 93 % 5 lf 1009,9 hPa 0,0 l/m 0 min 0 min 0 W/m 23,0 km/h (4 Bft) 93,62 %
30.01.2016 22:56 2,7 C 2,8 C 1,1 C 93 % 4 lf 1009,9 hPa 0,0 l/m 0 min 0 min 0 W/m 25,1 km/h (4 Bft) 89,13 %
30.01.2016 22:58 2,7 C 2,2 C 1,1 C 93 % 4 lf 1009,9 hPa 0,0 l/m 0 min 0 min 0 W/m 27,2 km/h (4 Bft) 95,74 %
30.01.2016 23:00 2,7 C 2,8 C 1,1 C 93 % 4 lf 1010,0 hPa 0,0 l/m 0 min 0 min 0 W/m 23,0 km/h (4 Bft) 95,65 %
30.01.2016 23:02 2,7 C 2,8 C 1,1 C 92 % 4 lf 1009,9 hPa 0,0 l/m 0 min 0 min 0 W/m 27,2 km/h (4 Bft) 93,62 %
30.01.2016 23:04 2,7 C 2,8 C 1,1 C 92 % 3 lf 1010,0 hPa 0,0 l/m 0 min 0 min 0 W/m 29,3 km/h (5 Bft) 93,62 %
30.01.2016 23:06 2,8 C 2,8 C 1,1 C 92 % 3 lf 1010,0 hPa 0,0 l/m 0 min 0 min 0 W/m 25,1 km/h (4 Bft) 82,98 %
30.01.2016 23:08 2,8 C 2,8 C 1,1 C 92 % 3 lf 1010,1 hPa 0,0 l/m 0 min 0 min 0 W/m 23,0 km/h (4 Bft) 89,13 %
30.01.2016 23:10 2,8 C 2,8 C 1,1 C 92 % 3 lf 1010,0 hPa 0,0 l/m 0 min 0 min 0 W/m 25,1 km/h (4 Bft) 93,62 %
30.01.2016 23:12 2,8 C 2,8 C 1,1 C 92 % 2 lf 1010,0 hPa 0,0 l/m 0 min 0 min 0 W/m 27,2 km/h (4 Bft) 95,74 %
30.01.2016 23:14 2,8 C 2,2 C 1,1 C 91 % 2 lf 1010,1 hPa 0,0 l/m 0 min 0 min 0 W/m 20,9 km/h (4 Bft) 93,62 %
30.01.2016 23:16 2,8 C 2,2 C 1,1 C 91 % 1 lf 1010,2 hPa 0,0 l/m 0 min 0 min 0 W/m 29,3 km/h (5 Bft) 97,87 %
30.01.2016 23:18 2,8 C 2,2 C 1,1 C 91 % 1 lf 1010,1 hPa 0,0 l/m 0 min 0 min 0 W/m 27,2 km/h (4 Bft) 95,74 %
30.01.2016 23:20 2,8 C 2,2 C 1,1 C 91 % 1 lf 1010,1 hPa 0,0 l/m 0 min 0 min 0 W/m 25,1 km/h (4 Bft) 93,48 %
30.01.2016 23:22 2,8 C 2,2 C 1,1 C 91 % 0 lf 1010,1 hPa 0,0 l/m 0 min 0 min 0 W/m 18,8 km/h (3 Bft) 97,87 %
30.01.2016 23:24 2,9 C 2,2 C 1,1 C 91 % 0 lf 1010,1 hPa 0,0 l/m 0 min 0 min 0 W/m 20,9 km/h (4 Bft) 100,00 %
30.01.2016 23:26 2,8 C 2,2 C 1,1 C 90 % 0 lf 1010,1 hPa 0,0 l/m 0 min 0 min 0 W/m 25,1 km/h (4 Bft) 100,00 %
30.01.2016 23:28 2,9 C 2,2 C 1,1 C 90 % 0 lf 1010,1 hPa 0,0 l/m 0 min 0 min 0 W/m 27,2 km/h (4 Bft) 97,87 %
30.01.2016 23:30 2,9 C 2,8 C 1,1 C 90 % 0 lf 1010,1 hPa 0,0 l/m 0 min 0 min 0 W/m 25,1 km/h (4 Bft) 100,00 %
30.01.2016 23:32 2,9 C 2,8 C 1,1 C 90 % 0 lf 1010,1 hPa 0,0 l/m 0 min 0 min 0 W/m 27,2 km/h (4 Bft) 97,87 %
30.01.2016 23:34 2,9 C 2,8 C 1,1 C 90 % 0 lf 1010,1 hPa 0,0 l/m 0 min 0 min 0 W/m 29,3 km/h (5 Bft) 100,00 %
30.01.2016 23:36 2,9 C 2,8 C 1,1 C 90 % 0 lf 1010,1 hPa 0,0 l/m 0 min 0 min 0 W/m 25,1 km/h (4 Bft) 95,74 %
30.01.2016 23:38 3,0 C 3,3 C 1,1 C 90 % 0 lf 1010,1 hPa 0,0 l/m 0 min 0 min 0 W/m 25,1 km/h (4 Bft) 97,87 %
30.01.2016 23:40 3,0 C 3,3 C 1,1 C 90 % 0 lf 1010,0 hPa 0,0 l/m 0 min 0 min 0 W/m 18,8 km/h (3 Bft) 93,62 %
30.01.2016 23:42 3,1 C 3,3 C 1,1 C 90 % 0 lf 1010,0 hPa 0,0 l/m 0 min 0 min 0 W/m 23,0 km/h (4 Bft) 100,00 %
30.01.2016 23:44 3,1 C 3,3 C 1,1 C 90 % 0 lf 1010,0 hPa 0,0 l/m 0 min 0 min 0 W/m 33,5 km/h (5 Bft) 95,74 %
30.01.2016 23:46 3,1 C 3,3 C 1,1 C 89 % 0 lf 1010,1 hPa 0,0 l/m 0 min 0 min 0 W/m 27,2 km/h (4 Bft) 100,00 %
30.01.2016 23:48 3,1 C 3,3 C 1,1 C 89 % 0 lf 1010,0 hPa 0,0 l/m 0 min 0 min 0 W/m 23,0 km/h (4 Bft) 100,00 %
30.01.2016 23:50 3,2 C 3,3 C 1,1 C 89 % 0 lf 1010,0 hPa 0,0 l/m 0 min 0 min 0 W/m 27,2 km/h (4 Bft) 100,00 %
30.01.2016 23:52 3,2 C 3,3 C 1,1 C 89 % 0 lf 1009,9 hPa 0,0 l/m 0 min 0 min 0 W/m 23,0 km/h (4 Bft) 100,00 %
30.01.2016 23:54 3,2 C 3,3 C 1,1 C 89 % 0 lf 1010,0 hPa 0,0 l/m 0 min 0 min 0 W/m 29,3 km/h (5 Bft) 100,00 %
30.01.2016 23:56 3,2 C 3,3 C 1,1 C 89 % 0 lf 1010,1 hPa 0,0 l/m 0 min 0 min 0 W/m 27,2 km/h (4 Bft) 95,74 %
30.01.2016 23:58 3,2 C 3,3 C 1,1 C 89 % 0 lf 1010,2 hPa 0,0 l/m 0 min 0 min 0 W/m 27,2 km/h (4 Bft) 100,00 %
_ Min-Zeit 22:16 21:50 21:34 00:04 00:00 13:18 - - - - 15:24 00:02
Minimum _ 2,7 C 2,2 C 1,1 C 84 % 0 lf 1005,4 hPa - - - - 8,4 km/h (2 Bft) 15,38 %
_ Max-Zeit 00:00 00:00 00:00 17:38 03:30 00:02 13:42 00:00 00:14 11:08 11:36 00:12
Maximum _ 9,4 C 9,4 C 7,8 C 96 % 15 lf 1019,0 hPa 0,6 l/m 0 min 2 min 94 W/m 62,8 km/h
SW (8 Bft)
100,00 %
Durchschnitt _ 6,8 C 6,3 C 5,0 C 92 % 12 lf 1010,3 hPa #14,6 l/m #0 min. #16:57 h 32 W/m 32,8 km/h (5 Bft) 95,97 %
© 2016 W. Hausmann